GEFSSGP_con_prob3kmehi_090.txt.gz
EHI
0 0 0 0 0 0 0 0 0 0 0 0 1 2 1 1 1 2 4 13 30 37 27 24 31 37 38 36 31 21 10 6 4 2 1 0 0 0 0 0 0 0 0 0 0 0 0 0 0
0 0 0 0 0 0 0 0 0 0 0 1 2 3 3 3 5 5 7 18 35 39 30 27 33 38 37 36 31 20 10 5 3 1 0 0 0 0 0 0 0 0 0 0 0 0 0 0 0
0 0 0 0 0 0 0 0 1 1 2 4 6 6 5 6 9 10 18 32 43 43 34 32 39 42 38 36 29 19 9 4 1 0 0 0 0 0 0 0 0 0 0 0 0 0 0 0 0
0 0 0 0 0 0 0 0 2 4 6 9 12 11 8 8 12 20 36 49 53 49 39 38 44 43 39 36 28 18 9 3 0 0 0 0 0 0 0 0 0 0 0 0 0 0 1 1 0
0 0 0 0 0 0 0 1 4 7 11 16 20 17 11 14 24 39 53 61 62 56 47 45 47 43 37 34 26 17 8 2 0 0 0 0 0 0 0 0 0 0 0 0 1 1 1 1 1
0 0 0 0 0 0 0 2 7 13 18 24 29 25 18 24 43 58 65 66 67 66 59 54 49 41 35 29 21 13 6 2 0 0 0 0 0 0 0 0 0 0 0 0 1 1 1 1 0
0 0 0 0 0 0 0 2 9 18 25 32 37 32 25 34 55 70 72 69 72 76 73 63 52 42 33 24 16 10 4 1 0 0 0 0 0 0 0 0 0 0 0 0 1 1 0 0 0
0 0 0 0 0 0 0 1 7 18 29 40 43 35 31 45 66 77 76 72 74 78 75 67 56 46 34 22 14 7 3 1 0 0 0 0 0 0 0 0 0 0 0 0 0 0 0 0 0
0 0 0 0 0 1 2 2 8 21 35 46 48 42 45 64 78 80 76 73 71 71 67 62 58 51 37 23 12 5 2 0 0 0 0 0 0 0 0 0 0 0 0 0 0 0 0 0 0
0 0 0 0 1 2 3 7 17 30 41 50 55 57 66 77 80 76 71 67 65 63 57 53 53 52 42 28 15 7 3 2 1 0 0 0 0 0 0 0 0 0 0 0 0 0 0 0 0
0 0 0 0 1 3 6 13 26 35 39 48 60 70 77 79 74 67 62 57 55 54 50 47 49 50 42 31 21 11 6 4 2 1 0 0 0 0 0 0 0 0 0 0 0 0 0 0 0
0 0 0 0 1 3 7 14 23 28 30 42 62 75 79 77 67 56 50 46 44 44 44 45 46 44 36 28 22 13 6 3 2 1 0 0 0 0 0 0 0 0 0 0 0 0 0 0 0
0 0 0 0 0 2 6 11 16 20 29 47 65 75 77 73 61 47 40 38 37 36 38 41 39 34 27 22 18 10 4 1 1 0 0 0 0 0 0 0 0 0 0 0 0 0 0 0 0
0 0 0 0 1 3 6 8 11 21 40 58 67 70 70 67 58 46 37 34 31 30 31 32 28 23 19 14 10 6 2 1 0 0 0 0 0 0 0 0 0 0 0 0 0 0 0 0 0
0 0 0 0 1 2 4 5 9 25 50 64 66 65 64 60 54 47 38 31 26 23 23 22 20 16 12 7 3 2 1 1 0 0 0 0 0 0 0 0 0 0 0 0 0 0 0 0 0
0 0 0 0 0 1 1 2 6 25 51 63 60 56 54 49 44 40 36 29 22 20 19 17 14 10 6 2 1 0 0 0 0 0 0 0 0 0 0 0 0 0 0 0 0 0 0 0 0
0 0 0 0 0 0 0 1 5 20 40 48 46 43 40 35 30 29 31 27 20 17 17 14 10 5 2 0 0 0 0 0 0 0 0 0 0 0 0 0 0 0 0 0 0 0 0 0 0
0 0 0 0 0 0 0 1 3 11 22 28 30 30 28 25 21 21 24 23 19 16 14 12 7 2 1 1 0 0 0 0 0 0 0 0 0 0 0 0 0 0 0 0 0 0 0 0 0
0 0 0 0 0 0 1 2 2 5 11 15 18 19 18 17 17 18 20 20 18 15 12 9 6 2 2 1 0 0 0 0 0 0 0 0 0 0 0 0 0 0 0 0 0 0 0 0 0
0 0 0 0 0 0 1 2 1 3 6 8 9 11 11 12 15 18 19 19 18 15 11 9 7 4 3 2 1 0 0 0 0 0 0 0 0 0 0 0 0 0 0 0 0 0 0 0 0
0 0 0 0 0 0 1 1 0 1 2 2 4 7 9 11 13 15 17 18 17 14 11 10 8 6 4 3 2 1 0 0 0 0 0 0 0 0 0 0 0 0 0 0 0 0 0 0 0
0 0 0 0 0 0 0 0 0 0 0 1 2 5 7 8 7 8 11 14 15 13 13 12 9 6 4 3 2 1 0 0 0 0 0 0 0 0 0 0 0 0 0 0 0 0 0 0 0
0 0 0 0 0 0 0 0 0 0 0 0 1 3 4 4 2 3 6 9 11 11 12 11 8 5 3 2 1 0 0 0 0 0 0 0 0 0 0 0 0 0 0 0 0 0 0 0 0
0 0 0 0 0 0 0 0 0 0 0 0 1 2 2 1 1 1 3 6 7 8 8 7 5 4 2 1 0 0 0 0 0 0 0 0 0 0 0 0 0 0 0 0 0 0 0 0 0
0 0 0 0 0 0 0 0 0 0 0 0 1 1 1 0 0 0 2 4 5 5 5 4 3 2 1 0 0 0 0 0 0 0 0 0 0 0 0 0 0 0 0 0 0 0 0 0 0
0 0 0 0 0 0 0 0 0 0 0 0 0 0 0 0 0 0 1 4 5 5 5 4 3 2 1 0 0 0 0 0 0 0 0 0 0 0 0 0 0 0 0 0 0 0 0 0 0
0 0 0 0 0 0 0 0 0 0 0 0 0 0 0 0 0 0 2 3 5 6 6 4 3 1 0 0 0 0 0 0 0 0 0 0 0 0 0 0 0 0 0 0 0 0 0 0 0
0 0 0 0 0 0 0 0 0 0 0 0 0 0 0 0 0 1 3 4 4 5 6 4 3 1 0 0 0 0 0 0 0 0 0 0 0 0 0 0 0 0 0 0 0 0 0 0 0
0 0 0 0 0 0 0 0 0 0 0 0 0 0 0 0 0 1 3 4 3 5 6 5 3 1 0 1 1 1 1 0 0 0 0 0 0 0 0 0 0 0 0 0 0 0 0 0 0
0 0 0 0 0 0 0 0 0 0 0 0 0 0 0 0 0 1 3 3 2 4 6 6 4 1 1 2 2 2 1 0 0 0 0 0 0 0 0 0 0 0 0 0 0 0 0 0 0

GEFSSGP_con_prob3kmehi_096.txt.gz
EHI
1 1 0 1 1 1 0 0 0 0 0 0 0 0 0 0 1 2 3 6 16 27 25 14 8 7 8 9 12 18 22 19 10 3 1 0 0 0 0 0 0 0 0 0 0 0 0 0 0
1 0 0 0 0 0 0 0 0 0 0 0 0 0 0 1 2 3 3 6 15 23 23 16 12 10 10 10 10 13 17 15 8 2 0 0 0 0 0 0 0 0 0 0 0 0 0 0 0
0 0 0 0 0 0 0 0 0 0 0 0 0 0 1 2 4 5 7 9 14 20 23 23 21 16 14 12 9 9 10 9 4 1 0 0 0 0 0 0 0 0 0 0 0 0 0 0 0
0 0 0 0 0 0 0 0 0 0 0 0 0 1 3 5 6 9 12 12 15 18 24 31 30 22 18 13 9 8 7 4 2 1 0 0 0 0 0 0 0 0 0 0 0 0 0 0 0
0 0 0 0 0 0 0 0 0 0 0 0 0 3 10 14 15 16 15 13 15 16 23 34 35 28 21 15 11 9 7 4 1 0 0 0 0 0 0 0 0 0 0 0 0 0 0 0 0
0 0 0 0 0 0 0 0 0 0 0 1 2 6 18 32 35 29 18 12 11 12 21 33 33 26 21 16 13 10 7 4 1 0 0 0 0 0 0 0 0 0 0 0 0 0 0 0 0
0 0 0 0 0 0 0 0 0 0 1 3 6 12 30 52 58 46 27 13 8 8 18 26 24 18 15 13 12 9 6 4 1 0 0 0 0 0 0 0 0 0 0 0 0 0 0 0 0
0 0 0 0 0 0 0 0 0 0 3 7 10 18 42 67 73 62 44 28 18 12 15 20 18 13 9 8 8 7 5 3 1 1 0 0 0 0 0 0 0 0 0 0 0 0 0 0 0
0 0 0 0 0 0 0 0 0 1 5 13 20 30 55 76 80 74 65 55 42 29 22 20 18 15 9 6 6 5 3 2 1 0 0 0 0 0 0 0 0 0 0 0 0 0 0 0 0
0 0 0 0 0 0 0 0 0 1 5 15 30 49 69 81 83 79 74 69 62 49 35 25 22 18 13 9 8 5 3 2 1 1 0 0 0 0 0 0 0 0 0 0 0 0 0 0 0
0 0 0 0 0 0 0 0 0 1 4 12 31 59 78 84 82 75 68 64 63 58 47 36 30 24 20 18 14 9 6 4 3 2 1 0 0 0 0 0 0 0 0 0 0 0 0 0 0
0 0 0 0 0 0 0 0 1 3 5 11 28 57 78 82 78 69 60 56 57 57 51 44 39 34 31 27 20 13 9 6 5 4 2 0 0 0 0 0 0 0 0 0 0 0 0 0 0
0 0 0 0 0 0 0 0 1 5 10 17 33 57 75 78 74 68 61 55 53 51 47 44 43 41 39 35 25 16 12 10 8 5 2 0 0 0 0 0 0 0 0 0 0 0 0 0 0
0 0 0 0 0 0 0 0 2 8 16 26 40 57 70 73 72 70 64 57 52 48 43 40 40 40 39 36 29 21 15 12 9 5 2 0 0 0 0 0 0 0 0 0 0 0 0 0 0
0 0 0 0 0 0 0 1 4 11 20 29 39 52 62 67 68 67 62 56 51 46 40 37 36 35 35 34 30 24 17 11 7 4 2 0 0 0 0 0 0 0 0 0 0 0 0 0 0
0 0 0 0 0 0 0 3 7 12 18 26 35 48 57 59 58 57 55 51 46 42 38 34 32 31 31 32 29 25 19 12 7 5 2 0 0 0 0 0 0 0 0 0 0 0 0 0 0
0 0 0 0 0 0 0 3 8 11 12 19 32 47 54 52 48 47 48 45 41 38 34 31 29 27 27 30 31 27 23 16 11 7 3 0 0 0 0 0 0 0 0 0 0 0 0 0 0
0 0 0 0 0 0 0 2 6 8 7 11 26 41 46 42 38 40 41 38 34 33 31 28 26 26 27 30 32 30 24 18 13 8 3 0 0 0 0 0 0 0 0 0 0 0 0 0 0
0 0 0 0 0 0 0 1 3 6 5 7 17 29 33 29 28 34 36 32 28 28 28 25 24 25 27 30 31 28 23 17 12 8 3 1 0 0 0 0 0 0 0 0 0 0 0 0 0
0 0 0 0 0 0 0 0 1 4 4 4 9 16 20 20 24 30 33 30 26 26 25 23 21 23 25 26 27 25 21 15 11 8 5 2 0 0 0 0 0 0 0 0 0 0 0 0 0
0 0 0 0 0 0 0 0 1 3 2 2 3 7 12 16 22 27 30 28 25 24 22 20 19 19 21 21 21 20 17 14 10 9 7 3 1 0 0 0 0 0 0 0 0 0 0 0 0
0 0 0 0 0 0 0 0 1 2 2 1 1 3 7 12 17 21 23 23 21 19 18 18 17 17 18 19 18 16 13 11 9 8 6 4 1 0 0 0 0 0 0 0 0 0 0 0 0
0 0 0 0 0 0 0 0 1 1 2 2 1 2 4 7 10 13 17 16 14 12 13 15 16 16 16 17 16 14 10 9 8 7 5 3 2 1 0 0 0 0 0 0 0 0 0 0 0
0 0 0 0 0 0 0 0 0 0 1 1 0 1 2 3 4 8 10 10 8 7 9 12 14 15 15 14 13 11 8 7 6 4 2 3 2 1 0 0 0 0 0 0 0 0 0 0 0
0 0 0 0 0 0 0 0 0 0 0 0 0 1 2 2 2 4 7 7 5 5 7 10 11 13 14 13 12 9 6 5 4 2 1 2 2 1 0 0 0 0 0 0 0 0 0 0 0
0 0 0 0 0 0 0 0 0 0 0 0 1 3 4 3 2 3 5 5 4 5 6 8 9 10 11 11 11 9 8 6 3 1 0 1 1 0 0 0 0 0 0 0 0 0 0 0 0
0 0 0 0 0 0 0 0 0 1 1 1 2 4 4 4 3 3 4 3 4 4 5 6 7 8 9 9 9 9 9 7 4 1 0 0 0 0 0 0 0 0 0 0 0 0 0 0 0
0 0 0 0 0 0 0 0 0 1 2 2 3 5 5 5 4 3 3 3 3 3 3 4 5 7 7 7 7 8 9 7 4 3 2 1 0 0 0 0 0 0 0 0 0 0 0 0 0
0 0 0 0 0 0 0 0 0 1 2 2 3 6 7 7 6 5 3 3 3 2 1 2 3 5 5 6 6 8 9 8 5 4 2 1 0 1 0 0 0 0 0 0 0 0 0 0 0
0 0 0 0 0 0 0 0 0 0 1 1 3 7 9 9 8 7 4 4 3 1 1 2 2 2 4 5 6 8 9 8 6 4 2 0 0 1 0 0 0 0 0 0 0 0 0 0 0

GEFSSGP_con_prob3kmehi_102.txt.gz
EHI
9 16 24 29 24 13 4 1 0 0 0 0 0 0 0 1 1 4 16 45 76 77 62 57 50 31 12 6 3 1 0 0 0 0 0 0 0 0 0 0 0 0 0 0 0 0 0 0 0
8 16 22 21 16 7 2 0 0 0 0 0 0 0 1 2 2 9 26 55 73 67 53 53 49 31 14 7 4 2 0 0 0 0 0 0 0 0 0 0 0 0 0 0 0 0 0 0 0
8 13 14 11 7 2 0 0 0 0 0 0 0 0 2 3 6 16 37 60 70 59 50 53 48 31 15 7 5 3 1 0 0 0 0 0 0 0 0 0 0 0 0 0 0 0 0 0 0
8 8 7 4 2 0 0 0 0 0 0 0 0 2 4 6 10 22 39 58 68 62 52 50 45 29 15 8 5 3 1 0 0 0 0 0 0 0 0 0 0 0 0 0 0 0 0 0 0
7 5 3 1 0 0 0 0 0 0 0 0 2 7 12 12 16 23 34 52 66 65 54 47 40 27 13 7 4 2 1 0 0 0 0 0 0 0 0 0 0 0 0 0 0 0 0 0 0
4 3 1 0 0 0 0 0 0 0 0 0 4 15 24 22 20 22 28 44 62 66 57 46 37 23 12 5 2 1 0 0 0 0 0 0 0 0 0 0 0 0 0 0 0 0 0 0 0
2 2 1 0 0 0 0 0 0 0 0 0 5 22 35 33 24 21 25 39 60 69 58 42 29 18 9 4 1 0 0 0 0 0 0 0 0 0 0 0 0 0 0 0 0 0 0 0 0
1 1 0 0 0 0 0 0 0 0 0 1 8 26 45 44 29 24 29 45 64 70 54 35 23 15 7 3 1 0 0 0 0 0 0 0 0 0 0 0 0 0 0 0 0 0 0 0 0
0 0 0 0 0 0 0 0 0 0 1 6 17 37 55 53 41 38 45 59 72 70 51 33 25 18 7 3 2 0 0 0 0 0 0 0 0 0 0 0 0 0 0 0 0 0 0 0 0
0 0 0 0 0 0 0 0 0 0 3 12 30 52 65 64 57 55 61 71 76 70 54 42 34 22 10 8 7 3 1 0 0 0 0 0 0 0 0 1 0 0 0 0 0 0 0 0 0
0 0 0 0 0 0 0 0 0 2 6 15 36 61 73 73 69 66 68 72 72 68 61 55 46 32 25 23 14 7 4 1 1 1 1 1 1 2 2 1 0 0 0 0 0 0 0 0 0
0 0 0 0 0 0 0 0 2 6 10 15 32 57 72 75 72 68 67 70 72 71 69 67 61 54 51 40 22 11 7 3 4 6 5 2 3 5 7 6 3 1 1 0 0 0 1 1 1
0 0 0 0 0 0 0 0 4 9 13 16 28 48 67 74 73 68 67 72 77 78 75 75 75 73 69 55 34 20 14 10 11 13 10 6 7 12 14 12 6 4 5 4 2 1 2 1 1
0 0 0 0 0 0 0 1 6 13 17 19 28 46 64 75 76 73 72 74 77 79 76 76 78 76 70 59 44 33 24 19 20 21 17 11 15 21 20 14 7 6 9 8 3 1 2 1 1
0 0 0 0 0 0 0 2 8 16 19 21 32 49 67 77 80 79 77 75 75 76 74 71 69 68 65 57 47 39 32 29 31 33 28 20 22 25 21 12 5 5 9 8 4 1 0 0 0
0 0 0 0 0 0 0 3 11 16 17 21 34 51 67 76 80 80 79 76 75 75 72 66 61 60 60 56 49 43 41 44 45 44 35 27 25 24 17 9 5 5 6 5 3 1 0 1 1
0 0 0 0 0 0 0 5 14 16 14 19 34 52 65 74 79 78 78 76 74 71 67 62 59 57 56 54 52 50 53 57 52 43 35 29 25 20 12 8 7 5 3 2 2 2 1 1 2
0 0 0 0 0 0 1 6 14 16 13 18 36 55 66 74 77 76 74 71 69 65 61 58 57 55 51 51 52 53 55 56 49 40 34 29 22 15 10 8 7 4 1 1 2 3 2 1 1
0 0 0 0 0 0 1 6 15 17 13 18 35 54 65 71 74 74 71 66 64 63 58 54 53 50 47 49 52 51 51 49 44 38 33 26 18 12 9 8 6 2 2 2 3 2 1 0 0
0 0 0 0 0 0 0 6 16 19 14 15 28 45 57 65 70 71 67 64 62 61 56 50 47 43 42 44 47 49 48 44 40 36 31 23 16 11 8 7 5 1 1 2 2 1 1 0 0
0 0 0 0 0 0 0 5 15 19 14 13 22 35 48 57 63 66 64 62 61 58 51 46 42 39 38 39 41 42 40 36 34 35 30 23 17 13 8 6 4 2 2 2 1 1 1 0 0
0 0 0 0 0 0 0 4 11 14 13 14 20 29 40 49 55 59 61 60 57 52 45 42 40 38 35 35 35 33 30 28 30 32 30 24 18 13 9 6 6 5 3 3 2 1 1 0 0
0 0 0 0 0 0 0 2 6 8 10 14 20 26 34 41 46 51 54 56 54 47 41 40 41 38 35 32 31 29 26 26 28 30 28 22 16 11 8 7 7 5 4 3 4 4 1 0 0
0 0 0 0 0 0 0 0 2 3 6 11 18 24 28 33 39 45 49 52 48 41 35 36 38 37 33 29 27 26 25 24 26 27 23 16 11 9 7 7 6 5 3 3 4 4 2 0 0
0 0 0 0 0 0 0 0 0 1 3 9 15 20 23 25 31 40 45 45 41 34 30 30 33 32 28 26 25 24 22 20 21 21 17 11 7 7 8 8 7 5 4 3 3 3 1 0 0
0 0 0 0 0 0 0 0 0 1 2 7 12 15 17 20 27 36 39 38 34 30 26 26 28 28 26 25 24 23 20 16 15 14 11 8 5 6 9 10 9 6 3 3 2 1 1 0 0
0 0 0 0 0 0 0 1 1 1 1 4 9 13 15 19 26 33 35 33 30 29 27 24 24 25 24 22 21 19 16 12 10 10 8 7 6 6 9 11 9 6 4 3 2 1 0 0 0
0 0 0 0 0 0 0 1 1 2 2 4 9 15 19 23 27 33 35 33 29 29 26 22 20 21 19 17 15 13 12 11 10 11 11 11 10 9 9 10 9 7 6 5 3 1 0 0 0
0 0 0 0 0 0 0 0 1 2 3 4 10 20 26 28 32 38 40 35 30 28 24 20 19 18 15 13 13 13 12 12 13 15 16 16 15 14 12 10 8 6 5 4 3 2 0 0 0
0 0 0 0 0 0 0 0 0 1 2 4 11 24 30 32 37 44 44 36 30 27 24 21 20 17 13 12 14 15 14 13 15 18 19 18 17 16 13 10 7 4 2 3 3 1 0 0 0

GEFSSGP_con_prob3kmehi_108.txt.gz
EHI
6 2 0 0 0 0 0 0 0 0 0 0 1 1 1 1 1 2 10 34 64 68 50 46 54 52 36 17 6 2 0 0 0 0 0 0 0 0 0 0 0 0 0 0 0 0 0 0 0
2 1 0 0 0 0 0 0 0 0 1 1 2 2 2 3 4 6 16 42 69 72 56 51 58 56 38 18 7 2 0 0 0 0 0 0 0 0 0 0 0 0 0 0 0 0 0 0 0
0 1 1 1 1 0 0 0 1 1 3 4 5 4 4 7 13 20 33 57 75 73 62 59 67 62 42 21 8 2 0 0 0 0 0 0 0 0 0 0 0 0 0 0 0 0 0 0 0
1 1 1 2 2 1 0 0 1 2 5 10 11 9 8 16 32 46 58 70 77 73 65 66 73 67 47 25 10 3 1 0 0 0 0 0 0 0 0 0 0 0 0 0 0 0 0 0 0
0 0 0 1 1 0 0 0 1 5 11 19 22 17 15 31 56 71 75 77 78 75 69 69 72 66 46 25 11 4 1 0 0 0 0 0 0 0 0 0 0 0 0 0 0 0 0 0 0
1 1 0 0 0 0 0 0 3 10 20 31 35 27 26 47 70 77 75 73 75 76 71 65 62 54 39 23 11 3 0 0 0 0 0 0 0 0 0 0 0 0 0 0 0 0 0 0 0
3 2 0 0 0 0 0 1 5 13 25 38 45 37 35 55 72 75 70 64 66 71 67 56 46 39 31 21 11 4 1 0 0 0 0 0 0 0 0 0 0 0 0 0 0 0 0 0 0
2 1 0 0 0 0 0 1 6 13 23 38 45 40 43 60 74 77 70 62 59 61 59 49 37 30 24 17 10 5 3 1 0 0 0 0 0 0 0 0 0 0 0 0 0 0 0 0 0
1 0 0 0 0 0 0 1 7 15 25 36 43 45 51 66 79 83 77 67 60 55 50 43 34 26 19 13 8 5 3 1 0 0 0 0 0 0 0 0 0 0 0 0 0 0 0 0 0
0 0 0 0 0 0 0 1 7 17 28 38 48 54 60 71 82 86 81 72 62 53 45 36 29 22 16 12 9 6 3 1 0 0 0 0 0 0 0 0 0 0 0 0 0 0 0 0 0
0 0 0 0 0 0 0 2 7 16 25 37 52 62 66 73 81 84 80 73 62 50 40 30 23 17 13 12 10 6 3 2 0 0 0 0 0 0 0 0 0 0 0 0 0 0 0 0 0
0 0 0 0 0 0 0 3 8 14 22 37 54 64 68 73 79 80 77 72 63 51 38 26 20 16 13 13 10 6 3 1 0 0 0 0 0 0 0 0 0 0 0 0 0 0 0 0 0
0 0 0 0 0 0 0 4 10 17 30 47 61 65 66 69 75 75 73 70 66 56 42 29 23 21 18 14 10 6 2 0 0 0 0 0 0 0 0 0 0 0 0 0 0 0 0 0 0
0 0 0 0 0 0 0 4 11 21 39 58 68 68 64 65 69 71 70 70 69 61 48 36 30 28 24 16 10 7 3 1 0 0 0 0 0 0 0 0 0 0 0 0 0 0 0 0 0
0 0 0 0 0 0 0 3 10 22 39 57 66 69 67 62 62 66 69 70 70 65 54 41 34 31 27 18 11 8 5 2 0 0 0 0 0 0 0 0 0 0 0 0 0 0 0 0 0
0 0 0 0 0 0 0 3 10 21 34 48 59 66 68 61 57 60 63 66 67 64 56 45 36 29 25 19 13 10 7 5 3 1 0 0 0 0 0 0 0 0 0 0 0 0 0 0 0
0 0 0 0 0 0 0 3 11 21 32 44 56 65 68 62 55 54 56 58 59 57 53 46 36 27 24 22 18 14 10 8 5 2 1 0 0 0 0 0 0 0 0 0 0 0 0 0 0
0 0 0 0 0 0 1 5 11 21 32 43 54 64 68 65 58 53 52 52 51 50 49 45 36 29 26 26 24 19 14 10 6 3 2 1 1 1 0 0 0 0 0 0 0 0 0 0 0
0 0 0 0 0 0 2 6 11 19 30 39 49 58 65 66 61 55 51 48 46 46 45 42 35 29 26 27 25 21 17 12 6 3 3 3 2 2 1 0 0 0 0 0 0 0 0 0 0
0 0 0 0 0 1 3 6 10 15 23 34 44 53 60 63 62 58 52 47 45 44 41 36 31 27 25 24 22 18 16 11 6 3 3 3 3 2 1 0 0 0 0 0 0 0 0 0 0
0 0 0 0 0 1 2 5 7 9 15 25 37 46 52 57 59 56 50 44 41 39 34 29 27 25 23 21 17 14 12 9 6 4 4 3 3 3 1 0 0 0 0 0 0 0 0 0 0
0 0 0 0 0 0 1 2 3 4 7 14 24 34 43 49 53 52 46 40 36 33 29 25 24 23 22 20 16 13 11 8 5 5 5 5 5 4 2 1 0 0 0 0 0 0 0 0 0
0 0 0 0 0 0 0 0 0 2 4 6 13 23 33 41 47 49 45 38 33 30 27 23 20 19 18 17 14 12 10 7 4 4 5 7 6 5 3 2 1 0 0 0 0 0 0 0 0
0 0 0 0 0 0 0 0 0 1 1 3 8 17 25 32 41 44 41 36 32 29 26 21 17 15 14 13 11 9 7 6 4 3 5 6 5 3 3 2 1 0 0 0 0 0 0 0 0
0 0 0 0 0 0 0 0 0 0 1 2 6 12 20 28 35 37 34 31 29 28 25 21 15 12 11 9 8 7 6 5 4 4 5 5 3 1 1 2 1 0 0 0 0 0 0 0 0
0 0 0 0 0 0 0 0 0 1 1 3 4 9 15 23 29 33 30 26 25 24 22 19 14 11 9 8 6 6 6 5 4 4 5 4 1 0 1 1 1 0 0 0 0 0 0 0 0
0 0 0 0 0 0 0 0 1 2 3 4 5 8 12 16 23 28 27 23 20 19 18 17 14 11 9 7 6 6 5 4 4 4 3 2 0 0 0 0 0 0 0 0 0 0 0 0 0
0 0 0 0 0 0 0 0 1 2 3 5 6 9 12 15 20 23 21 18 15 13 14 15 14 13 10 8 7 6 5 4 4 3 2 1 0 0 0 0 0 0 0 0 0 0 0 0 0
0 0 0 0 0 0 0 0 0 1 1 3 5 9 13 16 17 18 16 13 11 10 11 12 13 13 11 9 7 7 6 4 3 3 1 0 0 0 0 0 0 0 0 0 0 0 0 0 0
0 0 0 0 0 0 0 0 0 0 0 1 5 8 12 14 14 15 14 11 9 9 10 12 13 13 12 10 8 6 6 5 3 2 1 0 0 0 0 0 0 0 0 0 0 0 0 0 0

GEFSSGP_con_prob3kmehi_114.txt.gz
EHI
0 0 0 0 0 0 0 0 0 0 0 0 1 2 1 0 1 2 4 12 28 36 31 33 42 42 38 32 25 18 13 10 8 5 2 0 0 0 0 0 0 0 0 0 0 0 0 0 0
0 0 0 0 0 0 0 0 0 0 1 1 2 2 1 2 4 6 8 17 34 42 37 38 45 45 39 31 23 18 13 8 6 4 1 0 0 0 0 0 0 0 0 0 0 0 0 0 0
0 0 0 0 0 0 0 0 0 1 2 3 4 3 2 4 8 11 16 29 45 48 42 44 51 50 40 29 21 17 12 7 3 2 0 0 0 0 0 0 0 0 0 0 0 0 0 0 0
0 0 0 0 0 0 0 0 1 2 4 6 6 5 4 5 12 22 34 47 57 54 46 51 58 53 40 29 20 16 11 6 3 1 0 0 0 0 0 0 0 0 0 0 0 0 0 0 0
0 0 0 0 0 0 0 1 3 5 7 8 9 9 8 11 25 45 57 63 66 61 53 57 61 54 42 30 21 15 10 6 3 2 1 0 0 0 0 0 0 0 0 0 0 0 0 0 0
0 0 0 0 0 0 1 2 4 8 10 11 14 16 16 24 45 63 68 66 66 66 60 58 59 52 42 33 21 13 8 5 3 2 1 0 0 0 0 0 0 0 0 0 0 0 0 0 0
0 0 0 0 0 0 1 2 5 9 14 18 23 26 27 38 57 70 70 65 65 66 63 59 55 47 38 30 19 9 5 3 2 2 1 0 0 0 0 0 0 0 0 0 0 0 0 0 0
0 0 0 0 0 0 1 2 5 11 20 27 32 33 38 53 69 77 76 70 68 66 62 58 53 43 32 22 13 6 2 1 1 1 0 0 0 0 0 0 0 0 0 0 0 0 0 0 0
0 0 0 0 0 0 1 2 6 14 26 33 35 37 51 71 82 84 82 77 73 68 60 55 50 42 30 17 8 4 2 1 0 0 0 0 0 0 0 0 0 0 0 0 0 0 0 0 0
0 0 0 0 0 0 1 2 8 18 27 35 41 51 69 83 87 85 82 77 73 68 59 50 43 37 28 17 8 5 3 1 0 0 0 0 0 0 0 0 0 0 0 0 0 0 0 0 0
0 0 0 0 0 0 0 2 7 15 22 32 50 69 82 88 87 82 75 68 65 63 57 46 37 30 23 16 10 8 5 2 0 0 0 0 0 0 0 0 0 0 0 0 0 0 0 0 0
0 0 0 0 0 0 0 2 6 10 14 27 53 76 86 89 86 78 67 58 55 54 50 43 34 26 17 12 10 8 5 1 0 0 0 0 0 0 0 0 0 0 0 0 0 0 0 0 0
0 0 0 0 0 0 1 3 6 7 12 29 54 75 85 86 82 74 64 54 46 42 42 39 32 23 14 8 7 6 4 1 0 0 0 0 0 0 0 0 0 0 0 0 0 0 0 0 0
0 0 0 0 0 0 1 3 5 7 16 34 55 70 77 79 76 71 64 53 41 34 33 34 29 20 13 8 6 5 3 1 0 0 0 0 0 0 0 0 0 0 0 0 0 0 0 0 0
0 0 0 0 0 0 0 1 3 7 19 35 50 61 68 71 70 67 62 54 42 32 27 27 24 17 12 9 8 6 3 1 0 0 0 0 0 0 0 0 0 0 0 0 0 0 0 0 0
0 0 0 0 0 0 0 0 3 10 22 34 45 55 61 62 61 60 57 53 46 35 24 20 18 15 12 10 8 6 4 1 0 0 0 0 0 0 0 0 0 0 0 0 0 0 0 0 0
0 0 0 0 0 0 0 0 4 14 25 36 44 50 54 52 51 52 52 50 47 37 24 17 14 12 12 10 7 5 3 1 0 0 0 0 0 0 0 0 0 0 0 0 0 0 0 0 0
0 0 0 0 0 0 0 0 4 14 24 33 41 44 43 39 37 42 47 49 45 36 26 20 17 11 8 7 6 3 1 0 0 0 0 0 0 0 0 0 0 0 0 0 0 0 0 0 0
0 0 0 0 0 0 0 0 3 10 19 28 35 36 31 27 26 32 41 46 43 34 27 23 19 13 9 7 5 3 1 0 0 0 0 1 0 0 0 0 0 0 0 0 0 0 0 0 0
0 0 0 0 0 0 0 0 2 6 13 21 26 25 23 21 22 28 39 44 41 34 28 23 20 17 13 9 6 3 1 0 0 0 0 0 0 0 0 0 0 0 0 0 0 0 0 0 0
0 0 0 0 0 0 0 0 1 3 7 11 16 18 19 22 24 29 37 41 40 34 28 24 22 19 14 10 7 3 1 1 1 1 0 0 1 2 1 0 0 0 0 0 0 0 0 0 0
0 0 0 0 0 0 0 0 0 1 3 4 8 14 18 23 27 29 32 36 36 32 26 24 24 20 14 10 6 4 3 2 2 2 1 0 1 2 1 0 0 0 0 0 0 0 0 0 0
0 0 0 0 0 0 0 0 0 0 1 1 4 9 14 20 25 26 25 26 27 24 21 21 22 19 13 9 6 3 3 3 3 3 1 0 0 1 1 1 0 0 0 0 0 0 0 0 0
0 0 0 0 0 0 0 0 0 0 0 0 1 5 10 14 18 19 18 17 17 16 16 17 17 16 12 9 5 3 3 3 3 3 2 1 1 1 1 2 1 0 0 0 0 0 0 0 0
0 0 0 0 0 0 0 0 0 0 0 0 1 3 6 10 14 15 14 12 12 13 13 13 13 12 10 7 4 2 3 3 3 3 3 2 2 1 1 1 1 0 0 0 0 0 0 0 0
0 0 0 0 0 0 0 0 0 0 0 0 1 2 3 7 12 15 13 10 11 12 10 9 9 8 6 4 2 2 2 2 2 2 2 2 2 1 1 1 0 0 0 0 0 0 0 0 0
0 0 0 0 0 0 0 0 0 0 0 1 2 2 2 4 9 13 11 9 9 8 6 6 6 5 4 3 3 2 2 1 1 1 0 1 1 1 1 1 0 0 0 0 0 0 0 0 0
0 0 0 0 0 0 0 0 0 0 0 1 1 1 1 4 8 11 10 8 6 4 3 4 5 6 5 5 4 3 3 1 0 0 0 0 0 0 0 0 0 0 0 0 0 0 0 0 0
0 0 0 0 0 0 0 0 0 0 0 0 0 0 1 4 7 9 8 6 4 3 3 4 5 6 6 4 3 3 3 2 0 0 0 0 0 0 0 0 0 0 0 0 0 0 0 0 0
0 0 0 0 0 0 0 0 0 0 0 0 0 0 1 4 6 6 5 5 4 3 4 4 5 6 6 4 3 2 2 1 0 0 0 0 0 0 0 0 0 0 0 0 0 0 0 0 0

GEFSSGP_con_prob3kmehi_120.txt.gz
EHI
0 1 4 10 10 3 0 0 0 0 0 0 0 0 0 0 0 1 3 4 8 15 15 9 6 11 18 21 22 22 17 7 2 1 0 0 0 0 0 0 0 0 0 0 0 0 0 0 0
0 2 5 7 5 1 0 0 0 0 0 0 0 0 0 0 0 2 5 6 9 14 14 12 11 12 15 17 19 18 13 6 2 1 0 0 0 0 0 0 0 0 0 0 0 0 0 0 0
2 4 5 3 1 0 0 0 0 0 0 0 0 1 1 1 1 4 8 9 10 12 16 20 18 13 11 13 13 11 7 3 1 0 0 0 0 0 0 0 0 0 0 0 0 0 0 0 0
3 4 3 1 0 0 0 0 0 0 0 0 0 2 5 6 6 9 12 12 10 12 17 24 22 15 12 11 10 6 2 1 0 0 0 0 0 0 0 0 0 0 0 0 0 0 0 0 0
2 2 1 0 0 0 0 0 0 1 1 0 1 6 16 21 20 21 19 14 11 12 17 24 23 17 13 12 10 5 1 0 0 0 0 0 0 0 0 0 0 0 0 0 0 0 0 0 0
1 0 0 0 0 0 0 0 0 1 2 2 2 13 32 45 43 36 25 15 11 12 18 24 23 17 13 11 9 5 1 0 0 0 0 0 0 0 0 0 0 0 0 0 0 0 0 0 0
0 0 0 0 0 0 0 0 0 1 2 3 5 19 46 66 65 49 29 16 11 12 18 22 20 14 10 7 6 4 2 1 1 1 1 0 0 0 0 0 0 0 0 0 0 0 0 0 0
0 0 0 0 0 0 0 0 0 0 2 5 9 22 52 78 80 65 45 29 20 15 15 17 16 12 6 3 3 2 2 2 1 1 1 0 0 0 0 0 0 0 0 0 0 0 0 0 0
0 0 0 0 0 0 0 0 0 0 2 8 16 32 62 86 91 84 71 56 42 29 20 16 14 12 6 1 0 1 1 1 0 1 1 0 0 0 0 0 0 0 0 0 0 0 0 0 0
0 0 0 0 0 0 0 0 0 0 2 10 26 52 78 93 96 93 87 77 64 48 31 20 16 13 8 3 1 1 1 0 0 0 0 0 1 1 1 0 0 0 0 0 0 0 0 0 0
0 0 0 0 0 0 0 0 0 0 2 9 32 66 90 97 96 92 87 81 72 57 39 25 19 17 12 7 5 4 3 1 1 1 0 1 2 2 2 1 0 0 0 0 0 0 0 0 0
0 0 0 0 0 0 0 0 0 1 3 10 32 66 89 94 93 87 82 78 71 57 42 28 22 20 18 14 10 7 6 3 3 3 2 2 2 3 2 1 0 0 0 0 0 0 0 0 0
0 0 0 0 0 0 0 0 1 2 5 12 34 63 82 87 87 81 77 74 67 57 46 33 24 21 23 22 17 11 8 5 4 4 4 3 1 1 1 1 0 0 0 0 0 0 0 0 0
0 0 0 0 0 0 0 0 1 3 6 14 35 58 72 78 79 78 76 72 65 59 51 40 29 25 24 23 20 13 7 4 4 3 2 2 1 0 1 1 1 1 0 0 0 0 0 0 0
0 0 0 0 0 0 0 1 2 3 5 12 29 48 61 67 70 72 74 70 63 58 55 46 35 28 24 19 16 12 5 2 2 2 1 0 0 0 0 1 1 0 0 0 0 0 0 0 0
0 0 0 0 0 0 0 1 2 2 3 9 21 37 54 61 60 62 66 64 58 57 56 50 39 31 24 17 15 12 7 2 1 1 0 0 0 0 0 1 1 0 0 0 0 0 0 0 0
0 0 0 0 0 0 0 1 2 2 3 8 17 30 47 56 53 54 59 58 56 56 57 53 43 33 23 18 19 18 13 6 2 1 0 0 0 0 0 0 1 0 0 0 0 0 0 0 0
0 0 0 0 0 0 0 1 3 4 4 9 16 26 40 50 51 53 56 56 54 54 55 53 46 35 26 22 22 20 15 10 6 2 0 0 0 0 0 0 0 0 0 0 0 0 0 0 0
0 0 0 0 0 0 0 1 3 5 6 9 16 23 33 43 49 52 54 54 52 51 50 49 45 37 30 26 23 18 13 11 8 4 2 1 1 0 0 0 0 0 0 0 0 0 0 0 0
0 0 0 0 0 0 0 1 3 6 7 10 14 20 27 37 47 53 55 53 51 49 46 43 40 36 31 26 20 15 12 11 7 5 5 5 3 1 0 0 0 1 1 1 0 0 0 0 0
0 0 0 0 0 0 0 1 2 5 8 10 12 17 25 35 45 53 54 52 49 47 42 36 35 34 30 24 17 13 10 8 5 4 6 6 3 2 1 1 1 1 2 1 0 0 0 1 1
0 0 0 0 0 0 0 0 1 3 5 8 9 15 24 32 41 50 53 49 45 40 36 32 31 31 28 24 18 13 10 6 4 4 5 4 3 2 2 3 3 3 2 2 1 2 2 2 3
0 0 0 0 0 0 0 0 0 1 2 4 7 13 21 29 38 46 47 45 40 34 29 28 28 28 26 23 20 17 13 9 5 5 6 4 3 3 4 5 5 4 3 3 3 3 3 3 4
0 0 0 0 0 0 0 0 0 0 0 1 5 12 19 27 35 40 40 38 36 32 27 25 25 25 23 21 19 17 15 11 7 7 8 6 5 4 4 5 5 3 2 3 5 6 5 4 4
0 0 0 0 0 0 0 0 0 0 0 0 4 11 17 23 28 32 34 34 32 31 27 24 24 24 22 19 17 15 13 11 9 9 9 9 7 5 4 4 5 4 2 3 5 7 5 4 3
0 0 0 0 0 0 0 0 0 0 0 0 3 10 15 18 22 26 30 31 29 27 25 24 23 23 20 17 15 12 10 9 9 10 10 9 8 5 3 3 3 4 4 3 4 5 5 4 4
0 0 0 0 0 0 0 0 0 0 0 0 2 6 11 15 18 21 26 28 27 24 22 21 22 21 17 13 12 9 7 7 8 8 8 7 6 4 2 2 1 2 3 3 4 5 5 4 4
0 0 0 0 0 0 0 0 0 0 0 0 2 4 9 13 15 19 25 27 25 23 20 19 19 17 13 10 8 6 4 4 5 4 3 4 4 2 0 1 1 0 1 2 5 7 6 4 4
0 0 0 0 0 0 0 0 0 0 0 1 2 4 9 14 16 20 25 25 23 20 18 16 15 12 8 6 5 4 2 2 2 1 1 2 3 1 0 1 1 0 0 1 4 6 5 4 3
0 0 0 0 0 0 0 0 0 0 1 1 2 5 10 15 18 21 24 23 20 18 15 13 11 8 5 4 4 3 2 2 2 1 1 2 3 2 1 1 1 0 0 1 3 4 4 3 2

GEFSSGP_con_prob3kmehi_126.txt.gz
EHI
12 22 38 48 41 19 3 0 0 0 0 0 0 0 0 0 0 2 12 34 46 35 23 21 19 12 5 2 0 0 0 0 0 0 0 0 0 0 0 0 0 0 0 0 0 0 0 0 0
11 20 33 37 28 11 1 0 0 0 0 0 0 0 0 0 1 5 18 36 40 27 17 19 19 12 5 2 1 1 0 0 0 0 0 0 0 0 0 0 0 0 0 0 0 0 0 0 0
12 16 22 22 12 3 0 0 0 0 0 0 0 0 0 1 3 12 25 36 34 24 19 22 21 13 6 3 3 2 1 0 0 0 0 0 0 0 0 0 0 0 0 0 0 0 0 0 0
16 15 14 9 4 0 0 0 0 0 0 1 3 4 3 3 8 18 27 33 35 33 28 24 22 16 8 5 4 2 1 0 0 0 0 0 0 0 0 0 0 0 0 0 0 0 0 0 0
17 14 8 2 0 0 0 0 0 0 0 2 7 13 12 8 11 18 22 29 41 46 36 25 23 18 9 5 4 2 1 0 0 0 0 0 0 0 0 0 0 0 0 0 0 0 0 0 0
10 7 3 1 0 0 0 0 0 0 0 1 9 21 22 15 14 14 17 27 47 57 43 26 21 16 9 4 3 2 1 0 0 0 0 0 1 0 0 0 0 0 0 0 0 0 0 0 0
4 2 0 0 0 0 0 0 0 0 0 1 8 22 31 29 21 14 16 29 54 64 47 25 15 11 7 4 3 2 1 0 0 0 0 0 0 0 0 0 0 0 0 0 0 0 0 0 0
1 0 0 0 0 0 0 0 0 0 0 1 6 22 42 46 32 21 22 36 58 65 46 24 14 10 7 4 3 3 1 0 0 0 0 0 0 0 0 0 0 0 0 0 0 0 0 0 0
0 0 0 0 0 0 0 0 0 0 1 6 12 30 53 56 41 31 32 45 63 64 45 28 20 13 7 5 4 3 2 1 0 0 0 0 0 0 0 1 1 0 0 0 0 0 0 0 1
0 0 0 0 0 0 0 0 0 0 3 11 26 47 63 61 50 43 44 54 67 65 50 38 29 17 11 10 8 4 2 1 0 0 0 0 0 0 1 2 2 1 0 0 0 0 0 0 1
0 0 0 0 0 0 0 0 0 0 3 14 35 60 72 68 60 57 57 60 67 67 58 50 41 28 23 23 13 6 4 2 2 2 1 0 0 1 2 3 2 1 0 0 0 1 0 0 1
0 0 0 0 0 0 0 0 0 1 4 14 36 61 75 75 69 65 64 65 70 70 64 59 55 47 45 38 22 12 9 7 7 9 5 1 1 2 4 3 1 0 0 0 0 0 0 0 0
0 0 0 0 0 0 0 0 0 2 6 15 33 57 73 78 75 70 70 74 78 76 68 65 65 64 62 52 34 23 21 18 17 13 8 4 5 7 7 5 1 0 0 0 0 0 0 0 0
0 0 0 0 0 0 0 0 1 4 8 15 31 53 70 77 77 77 80 84 85 82 75 69 69 69 66 55 41 33 30 27 22 16 11 8 11 15 12 4 1 0 1 1 0 0 0 0 0
0 0 0 0 0 0 0 0 2 4 8 15 29 49 68 77 78 82 87 89 87 84 78 70 66 64 60 49 38 32 30 29 28 25 19 14 18 23 16 5 1 2 2 2 1 0 1 0 0
0 0 0 0 0 0 0 1 3 4 7 14 28 47 68 78 80 82 88 90 87 83 78 70 62 57 51 43 36 32 30 34 39 37 30 24 25 26 18 10 6 5 4 3 1 0 1 0 0
0 0 0 0 0 0 0 1 4 4 6 14 28 48 68 78 80 83 88 89 87 84 80 73 64 57 49 41 39 37 38 43 46 42 37 34 31 26 19 16 14 8 4 4 4 3 3 2 1
0 0 0 0 0 0 0 1 2 3 6 14 30 50 68 76 80 83 88 90 89 86 83 77 69 62 52 44 42 41 42 46 45 42 42 41 35 27 20 19 19 12 7 8 7 6 5 3 2
0 0 0 0 0 0 0 0 1 3 6 15 32 52 66 75 80 85 88 89 89 87 82 77 73 67 57 49 46 43 42 43 41 41 44 41 33 27 21 20 22 18 14 12 10 7 5 4 3
0 0 0 0 0 0 0 0 1 2 5 13 28 47 63 73 80 84 87 87 86 84 80 75 72 69 61 53 47 42 39 37 33 36 42 38 31 26 21 23 24 22 19 16 14 10 6 4 2
0 0 0 0 0 0 0 0 1 2 4 10 20 37 55 68 76 82 83 82 81 80 78 74 70 67 64 56 46 38 34 30 26 31 39 37 31 27 25 25 27 26 22 17 15 12 9 6 4
0 0 0 0 0 0 0 0 1 2 4 7 14 27 45 60 71 78 78 76 75 76 76 73 69 66 63 59 50 39 32 26 23 27 36 37 31 28 28 27 29 29 24 17 13 12 11 7 4
0 0 0 0 0 0 0 0 0 1 3 6 12 22 36 52 66 74 74 71 71 71 71 71 70 68 63 59 54 44 34 26 22 25 32 35 31 27 26 29 31 30 24 17 15 16 14 8 5
0 0 0 0 0 0 0 0 0 1 2 6 12 21 33 46 60 69 69 68 68 67 66 67 68 68 63 58 52 45 38 30 25 25 26 27 26 23 22 26 31 29 23 20 19 19 15 10 8
0 0 0 0 0 0 0 0 1 2 3 5 12 21 30 41 54 64 65 64 66 66 64 64 63 63 61 56 49 43 39 33 27 25 21 18 17 17 19 25 30 26 21 21 22 19 15 12 11
0 0 0 0 0 0 0 0 2 3 3 5 11 19 26 36 49 58 60 60 61 62 61 60 59 58 57 54 47 40 36 29 25 23 18 13 12 13 21 30 31 24 17 18 22 20 15 14 13
0 0 0 0 0 0 0 1 3 3 3 5 9 15 22 33 45 53 57 56 54 55 56 55 54 53 52 49 42 36 32 27 25 22 16 12 11 14 24 33 33 26 18 16 18 18 16 16 16
0 0 0 0 0 0 0 1 3 4 4 5 9 14 22 33 43 52 56 54 50 49 49 47 46 46 46 43 37 30 27 27 26 23 17 12 12 18 26 30 29 25 20 16 14 13 14 16 17
0 0 0 0 0 0 0 1 3 4 5 6 10 17 26 35 45 53 55 52 46 43 41 39 37 36 38 38 33 26 23 23 23 20 16 14 16 21 25 27 25 21 16 13 11 9 9 11 12
0 0 0 0 0 0 0 1 3 4 4 6 12 21 27 34 45 54 55 51 44 39 36 35 32 30 31 34 32 27 24 22 20 18 16 16 19 21 23 24 24 20 14 11 10 9 6 6 7

GEFSSGP_con_prob3kmehi_132.txt.gz
EHI
6 2 0 0 1 0 0 0 0 0 0 0 0 0 0 0 0 1 3 13 27 31 25 25 26 23 16 7 2 0 1 2 3 2 1 0 0 0 0 0 0 0 0 0 0 0 0 0 0
2 1 0 1 1 0 0 0 0 0 0 0 0 0 0 1 3 4 7 19 33 35 28 28 30 25 16 8 2 0 0 1 2 1 0 0 0 0 0 0 0 0 0 0 0 0 0 0 0
0 0 0 1 1 0 0 0 1 1 0 0 0 0 1 5 9 11 16 30 41 40 34 34 35 28 17 9 3 0 0 0 0 0 0 0 0 0 0 0 0 0 0 0 0 0 0 0 0
1 1 0 0 0 0 0 1 3 3 2 1 1 1 3 10 20 24 30 41 49 45 39 39 38 30 19 11 5 1 0 0 0 0 0 0 0 0 0 0 0 0 0 0 0 0 0 0 0
2 1 0 0 0 0 0 1 4 6 5 4 4 5 8 20 37 41 39 46 55 52 42 40 41 33 22 14 7 2 0 0 0 0 0 0 0 0 0 0 0 0 0 0 0 0 0 0 0
1 1 0 0 0 0 0 1 4 7 9 8 8 9 15 36 54 50 41 44 53 55 46 39 38 32 22 14 8 3 1 0 0 0 0 0 0 0 0 0 0 0 0 0 0 0 0 0 0
0 0 0 0 0 0 0 1 3 6 9 10 12 13 23 45 60 56 48 44 46 50 46 37 30 24 17 11 6 4 2 1 0 0 0 0 0 0 0 0 0 0 0 0 0 0 0 0 0
0 0 0 0 0 0 0 0 1 5 9 14 17 19 29 49 65 68 61 52 47 46 42 33 23 15 10 7 5 3 3 1 0 0 0 0 0 0 0 0 0 0 0 0 0 0 0 0 0
0 0 0 0 0 0 0 0 1 6 13 19 22 25 37 57 75 82 77 67 56 48 40 30 19 12 8 6 4 3 3 2 0 0 0 0 0 0 0 0 0 0 0 0 0 0 0 0 0
0 0 0 0 0 0 0 1 2 8 17 25 29 35 47 64 80 89 88 79 65 50 39 29 18 11 10 8 5 3 3 1 0 0 0 0 0 0 0 0 0 0 0 0 0 0 0 0 0
0 0 0 0 0 0 0 1 2 7 16 25 33 42 53 64 76 87 90 83 68 52 40 29 19 11 9 9 6 4 3 1 0 0 0 0 0 0 0 0 0 0 0 0 0 0 0 0 0
0 0 0 0 0 0 0 1 3 7 16 29 40 47 52 59 69 80 86 83 71 56 42 31 21 12 9 8 7 4 3 2 1 0 0 0 0 0 0 0 0 0 0 0 0 0 0 0 0
0 0 0 0 0 0 1 2 5 12 25 40 50 51 51 54 62 73 81 80 75 64 49 35 24 16 11 9 7 5 4 3 1 0 0 0 0 0 0 0 0 0 0 0 0 0 0 0 0
0 0 0 0 0 0 1 3 7 19 35 48 54 53 50 52 58 67 75 76 75 69 56 42 32 24 17 13 9 6 4 3 1 1 0 0 0 0 0 0 0 0 0 0 0 0 0 0 0
0 0 0 0 0 0 2 3 9 24 40 49 53 53 51 52 56 61 67 70 72 70 61 50 42 34 25 19 14 10 6 3 2 1 1 0 0 0 0 0 0 0 0 0 0 0 0 0 0
0 0 0 0 0 0 1 4 13 30 44 51 56 56 55 53 53 57 61 66 69 69 64 58 51 41 31 25 20 15 10 5 3 3 2 1 0 1 1 1 1 1 0 0 0 0 0 0 0
0 0 0 0 0 0 1 4 15 32 47 55 60 62 61 58 56 58 62 65 67 68 66 62 54 44 35 30 24 16 11 8 7 6 4 2 2 2 2 3 2 1 0 0 0 0 0 0 0
0 0 0 0 0 0 0 4 15 32 49 59 62 64 65 62 60 64 68 68 68 67 65 61 54 46 38 31 23 17 13 10 9 8 7 6 5 5 4 4 3 2 1 0 0 0 0 0 0
0 0 0 0 0 0 0 4 14 31 48 59 63 64 66 65 64 69 73 72 69 66 63 59 53 45 38 31 23 18 16 13 9 8 9 10 9 7 6 4 3 3 2 0 0 0 0 0 0
0 0 0 0 0 0 1 4 12 24 41 54 62 65 68 68 69 72 74 72 68 65 63 58 50 43 37 31 23 17 13 10 8 7 8 10 9 8 7 4 3 2 1 0 0 0 0 0 0
0 0 0 0 0 0 0 2 7 18 33 48 58 65 69 71 73 73 72 69 66 65 64 57 48 39 33 28 22 15 10 6 5 5 6 7 8 8 7 4 3 2 1 0 0 0 0 0 0
0 0 0 0 0 0 0 0 4 14 28 42 53 62 67 69 69 71 70 67 64 64 63 57 47 36 30 26 22 16 10 6 3 3 4 5 6 6 6 5 3 3 2 1 0 0 0 0 0
0 0 0 0 0 0 0 0 2 9 21 34 45 56 62 62 62 63 64 62 60 59 59 55 46 35 28 25 22 16 10 5 2 2 3 4 4 4 5 5 4 3 3 2 1 0 0 0 0
0 0 0 0 0 0 0 0 1 4 12 24 37 50 58 58 56 55 56 56 55 54 55 52 45 35 26 21 18 14 9 5 3 3 4 4 3 3 4 5 5 4 3 3 2 1 0 0 0
0 0 0 0 0 0 0 0 0 2 9 20 32 45 55 56 52 50 51 52 52 52 52 49 43 34 25 19 15 12 10 8 6 4 4 3 1 1 1 3 3 3 3 3 3 1 0 0 0
0 0 0 0 0 0 0 0 2 5 13 23 31 41 49 49 46 47 48 48 48 49 47 43 38 30 24 20 17 13 10 8 5 3 3 2 1 0 0 1 1 2 2 2 2 2 1 0 0
0 0 0 0 0 0 0 0 4 11 20 25 30 37 41 42 42 43 42 41 42 43 40 36 32 27 22 19 17 12 8 5 3 1 1 1 0 0 0 0 0 1 1 1 1 2 1 0 0
0 0 0 0 0 0 0 0 4 12 20 24 26 30 34 37 39 39 35 32 33 34 32 29 28 24 20 16 14 11 6 3 2 1 0 0 0 0 0 0 0 0 0 0 0 1 1 0 0
0 0 0 0 0 0 0 0 3 10 17 21 23 25 29 31 34 33 29 24 23 24 23 22 22 20 17 15 12 9 5 3 2 2 1 0 0 0 0 0 0 0 0 0 0 0 0 0 0
0 0 0 0 0 0 0 0 2 8 16 20 23 24 25 27 30 30 26 20 18 18 19 18 17 17 16 15 12 8 5 2 2 2 2 1 0 0 0 0 0 0 0 1 1 1 0 0 0

GEFSSGP_con_prob3kmehi_138.txt.gz
EHI
4 3 1 0 0 0 0 0 0 0 0 0 0 0 0 0 0 0 1 4 9 14 14 14 18 19 17 16 15 12 9 6 3 1 0 0 0 0 0 0 0 0 0 0 0 0 0 0 0
3 2 1 0 0 0 0 0 0 0 0 0 0 0 0 0 1 1 2 6 14 20 18 17 20 21 19 18 16 12 9 5 1 0 0 0 0 0 0 0 0 0 0 0 0 0 0 0 0
2 1 0 0 0 0 0 0 0 0 0 0 0 0 0 1 2 3 5 11 21 26 22 22 26 26 22 19 17 13 8 3 0 0 0 0 0 0 0 0 0 0 0 0 0 0 0 0 0
1 0 0 0 0 0 0 0 0 1 1 0 0 0 0 1 3 7 10 18 27 27 22 25 32 31 24 20 16 12 6 3 1 0 0 0 0 0 0 0 0 0 0 0 0 0 0 0 0
0 0 0 0 0 0 1 1 2 2 2 1 1 2 2 4 8 12 16 23 30 29 23 26 34 34 26 19 14 10 6 4 3 1 0 0 0 0 0 0 0 0 0 0 0 0 0 0 0
0 0 0 0 0 0 1 2 3 3 3 2 4 6 6 8 13 16 19 25 32 32 27 27 31 31 25 17 12 8 5 4 3 2 1 0 0 0 0 0 0 0 0 0 0 0 0 0 0
0 0 0 0 0 0 1 2 2 4 4 4 7 9 8 10 14 19 23 29 32 31 28 25 23 22 19 15 10 8 5 3 3 2 1 0 0 0 0 0 0 0 0 0 0 0 0 0 0
0 0 0 0 0 0 1 1 2 4 5 6 9 9 11 17 22 26 31 33 31 26 23 20 16 14 12 10 9 8 5 3 2 1 0 0 0 0 0 0 0 0 0 0 0 0 0 0 1
0 0 0 0 0 0 0 1 2 5 7 8 9 13 24 38 42 42 42 39 33 25 19 16 14 12 10 8 7 7 5 3 1 0 0 0 0 0 0 0 0 0 0 0 0 0 0 0 1
0 0 0 0 0 0 0 1 4 8 10 11 14 26 48 62 59 52 48 43 38 30 22 16 14 14 11 8 6 5 4 2 0 0 0 0 0 0 0 0 0 0 0 0 0 0 0 0 1
0 0 0 0 0 0 0 1 4 8 10 12 25 48 69 74 63 53 47 43 40 35 26 18 15 14 12 8 5 4 3 2 1 0 0 0 0 0 0 0 0 0 0 0 0 0 0 0 0
0 0 0 0 0 0 0 0 2 6 8 17 38 63 78 75 60 48 43 40 38 35 27 20 16 15 12 8 5 4 3 3 2 0 0 0 0 0 0 0 0 0 0 0 0 0 0 0 0
0 0 0 0 0 0 0 0 1 5 13 28 49 67 75 70 58 46 39 37 37 32 27 21 18 15 12 8 5 4 3 2 1 0 0 0 0 0 0 0 0 0 0 0 0 0 0 0 0
0 0 0 0 0 0 0 1 3 9 22 39 53 62 67 66 61 51 41 37 35 30 25 21 18 14 10 6 5 4 3 1 0 0 0 0 0 0 0 0 0 0 0 0 0 0 0 0 0
0 0 0 0 0 0 1 1 4 14 28 41 48 51 54 58 60 56 46 39 34 26 22 20 16 10 6 5 4 3 3 1 0 0 0 0 0 0 0 0 0 0 0 0 0 0 0 0 0
0 0 0 0 0 0 0 0 5 18 32 39 40 41 43 47 50 51 48 41 32 24 20 18 13 8 4 3 3 3 3 2 1 0 0 0 0 0 0 0 0 0 0 0 0 0 0 0 0
0 0 0 0 0 0 0 1 7 21 34 40 40 39 39 39 39 43 46 42 33 25 20 17 13 7 4 3 3 3 3 2 1 0 0 0 0 0 0 0 0 0 0 0 0 0 0 0 0
0 0 0 0 0 0 0 1 7 20 32 39 43 42 41 37 34 36 41 43 38 30 23 19 15 9 5 3 3 3 3 2 0 0 0 0 0 0 0 1 1 0 1 1 0 0 0 0 0
0 0 0 0 0 0 1 1 5 16 26 36 43 44 42 37 34 34 38 42 42 36 28 22 19 15 10 7 5 4 3 2 1 0 0 0 0 0 1 2 2 2 2 2 1 0 0 0 0
0 0 0 0 0 0 0 0 3 10 19 30 39 42 41 38 37 38 39 42 42 38 31 27 25 21 17 12 8 4 3 2 1 0 0 0 0 0 1 2 2 3 3 3 1 1 0 0 0
0 0 0 0 0 0 0 0 1 4 11 23 32 38 41 42 42 42 41 41 40 35 30 28 27 24 19 15 12 8 6 4 1 0 0 0 0 0 0 1 2 3 3 3 2 2 1 0 0
0 0 0 0 0 0 0 0 0 1 5 14 26 37 44 46 44 43 40 37 35 31 26 24 22 20 18 16 15 14 11 6 2 1 0 0 0 0 0 0 2 3 3 3 3 2 2 1 0
0 0 0 0 0 0 0 0 0 0 1 6 19 34 43 45 44 41 36 32 30 26 23 22 20 17 16 15 15 14 11 6 2 1 1 1 0 0 0 0 1 3 3 3 3 3 2 1 0
0 0 0 0 0 0 0 0 0 0 0 3 13 28 38 42 41 37 33 30 28 26 25 25 23 18 15 13 12 10 8 5 2 1 1 1 0 0 0 0 1 2 2 3 3 3 3 1 0
0 0 0 0 0 0 0 0 0 0 0 3 12 26 36 40 38 34 33 32 29 28 28 26 23 18 14 11 9 8 7 5 2 1 0 0 0 0 0 0 0 1 1 1 2 2 2 1 1
0 0 0 0 0 0 0 0 0 0 1 5 14 26 35 39 38 34 31 30 29 27 26 24 20 15 11 9 6 6 6 5 2 0 0 0 0 0 0 0 0 0 0 0 1 1 1 1 0
0 0 0 0 0 0 0 0 0 0 2 7 14 22 30 34 34 30 26 24 24 23 21 19 16 12 9 7 6 5 4 3 2 0 0 0 0 0 0 0 0 0 0 0 0 0 0 0 0
0 0 0 0 0 0 0 0 0 0 2 7 12 16 21 26 27 23 20 18 17 16 15 13 12 10 8 7 6 5 3 2 1 0 0 0 0 0 0 0 0 0 0 0 0 0 0 0 0
0 0 0 0 0 0 0 0 0 0 2 6 10 12 15 20 21 19 17 14 12 12 11 9 8 8 7 6 5 4 3 2 1 0 0 0 0 0 0 0 0 0 0 0 0 0 0 0 0
0 0 0 0 0 0 0 0 0 0 2 6 10 12 15 18 18 17 16 12 11 11 10 8 8 7 5 4 4 3 2 2 1 0 0 0 0 0 0 0 0 0 0 0 0 0 0 0 0

GEFSSGP_con_prob3kmehi_144.txt.gz
EHI
5 6 14 19 12 3 0 0 0 0 0 0 0 0 0 0 0 0 0 1 2 4 5 4 4 4 5 7 9 11 9 7 5 3 1 0 0 0 0 0 0 0 0 0 0 0 0 1 1
4 7 15 15 7 1 0 0 0 0 0 0 0 0 0 0 0 0 0 1 2 4 5 5 4 5 6 10 13 12 9 7 5 2 1 0 0 0 0 0 0 0 0 0 0 0 0 0 1
4 8 11 8 2 0 0 0 0 0 0 0 0 0 0 0 0 0 1 1 1 3 6 8 6 5 7 10 12 11 8 6 3 1 0 0 0 0 0 0 0 0 0 0 0 0 0 0 0
5 7 6 2 0 0 0 0 0 0 0 0 0 1 2 1 0 2 3 3 2 2 6 9 8 5 6 7 8 7 5 4 2 0 0 1 1 0 0 0 0 0 0 0 0 0 0 0 0
3 3 2 0 0 0 0 0 0 0 0 0 1 2 3 2 2 4 5 4 2 1 5 8 8 5 4 5 5 4 3 3 2 1 1 1 1 0 0 0 0 0 0 0 0 0 0 0 0
1 0 0 0 0 0 0 0 0 0 0 1 1 4 6 7 8 8 7 5 3 1 3 6 6 4 4 5 6 5 4 3 2 1 1 1 1 0 0 0 0 0 0 0 0 0 0 0 0
0 0 0 0 0 0 0 0 0 0 0 1 2 6 14 18 17 13 10 7 5 3 3 3 3 3 3 4 6 6 6 4 3 1 0 0 0 0 0 0 0 0 0 0 0 0 0 0 0
0 0 0 0 0 0 0 0 0 0 1 1 3 9 23 33 28 20 15 13 10 6 3 2 2 3 3 4 5 7 7 5 2 1 0 0 0 0 0 0 0 0 0 0 0 0 0 0 0
0 0 0 0 0 0 0 0 0 1 2 4 7 17 36 47 40 29 23 20 18 12 6 3 2 3 3 4 4 5 5 4 1 0 0 0 0 0 0 0 0 0 0 0 0 0 0 0 0
0 0 0 0 0 0 0 0 0 1 2 6 15 32 51 58 49 37 29 26 24 20 13 7 5 4 4 4 4 3 3 2 1 0 0 0 0 0 0 0 0 0 0 0 0 0 0 0 0
0 0 0 0 0 0 0 0 0 1 2 6 22 47 64 65 55 41 32 30 29 26 19 12 8 6 6 6 5 3 2 1 0 0 0 0 0 0 0 0 0 0 0 0 0 0 0 0 0
0 0 0 0 0 0 0 0 0 0 1 6 26 53 68 67 57 43 35 34 33 29 25 19 12 10 10 8 6 4 3 2 1 0 0 0 0 0 0 0 0 0 0 0 0 0 0 0 0
0 0 0 0 0 0 0 0 0 0 2 11 33 54 65 65 57 46 39 37 36 33 30 25 18 15 13 11 8 7 6 4 2 1 0 0 0 0 0 0 0 0 0 0 0 0 0 0 0
0 0 0 0 0 0 0 0 0 2 6 18 37 53 59 58 53 48 46 44 42 39 35 29 23 20 17 14 12 10 8 7 4 2 1 1 0 0 0 0 0 0 0 0 0 0 0 0 0
0 0 0 0 0 0 0 0 1 4 11 22 37 49 55 55 51 50 49 45 43 40 36 30 24 22 21 17 14 10 8 7 5 3 2 2 2 2 1 1 0 0 0 0 0 0 0 0 0
0 0 0 0 0 0 0 0 1 4 12 23 34 46 57 58 53 49 43 37 36 36 34 28 22 21 22 18 13 9 7 7 5 4 4 3 3 3 3 2 1 0 0 0 0 0 0 0 0
0 0 0 0 0 0 0 0 1 4 10 19 31 45 57 59 54 46 38 31 31 32 30 26 21 20 20 16 12 9 8 8 6 5 5 4 3 3 3 2 2 1 0 1 1 1 0 0 0
0 0 0 0 0 0 0 0 1 4 9 16 28 42 52 53 49 45 37 32 31 30 29 27 25 25 22 17 12 10 10 9 7 5 6 5 4 3 2 2 2 2 1 2 2 2 0 0 0
0 0 0 0 0 0 0 0 1 4 7 13 24 36 45 47 46 45 41 37 35 33 33 33 34 35 30 21 16 13 12 10 7 5 5 6 5 4 3 2 2 3 3 2 2 1 0 0 0
0 0 0 0 0 0 0 0 2 4 6 10 18 28 38 45 50 51 49 46 43 41 41 40 41 42 36 25 18 15 12 9 7 5 5 5 4 3 4 3 3 5 4 3 2 2 1 1 1
0 0 0 0 0 0 0 0 2 5 6 8 13 21 33 45 54 57 56 51 47 46 46 44 43 42 35 25 18 15 14 10 6 4 4 3 2 2 3 3 4 4 4 3 3 3 3 3 3
0 0 0 0 0 0 0 0 1 3 5 8 12 21 33 43 49 53 53 48 43 43 44 44 43 41 34 25 19 17 15 10 6 4 4 4 3 2 3 4 4 3 2 2 3 4 4 4 4
0 0 0 0 0 0 0 0 0 0 2 6 12 23 35 41 42 44 46 44 39 37 39 40 41 39 33 26 21 18 13 8 5 4 4 5 5 3 3 5 6 5 2 1 2 3 3 4 5
0 0 0 0 0 0 0 0 0 0 1 5 12 22 34 41 40 39 42 43 39 36 35 35 37 38 34 29 24 18 11 7 5 4 5 5 4 4 5 5 6 7 5 2 2 2 4 5 5
0 0 0 0 0 0 0 0 0 0 1 3 9 19 30 39 40 40 42 44 42 39 35 32 35 37 35 30 25 19 12 8 6 5 7 6 4 5 6 5 6 7 6 4 2 3 4 4 4
0 0 0 0 0 0 0 0 0 0 0 1 6 17 26 33 38 40 42 44 43 40 36 33 36 38 35 30 26 21 14 7 5 6 8 8 5 5 5 4 3 4 4 3 3 3 3 3 2
0 0 0 0 0 0 0 0 0 1 1 1 5 15 24 30 36 39 41 42 41 39 36 34 36 35 33 30 28 24 18 11 6 7 8 7 3 3 2 1 1 2 2 2 4 4 4 4 3
0 0 0 0 0 0 0 0 0 1 1 2 5 14 24 31 35 39 39 38 38 37 33 31 30 29 28 27 25 23 19 14 10 8 7 5 2 1 1 0 1 3 4 4 5 5 4 4 5
0 0 0 0 0 0 0 0 0 1 1 2 6 14 24 30 33 38 39 38 38 35 30 25 23 23 22 19 18 16 13 11 9 8 5 4 2 1 0 0 1 3 6 6 4 3 2 2 3
0 0 0 0 0 0 0 0 0 1 2 2 6 15 24 29 32 37 42 43 40 34 28 22 20 20 18 16 14 12 9 8 7 6 5 4 3 1 0 0 0 2 6 7 5 2 1 0 1

GEFSSGP_con_prob3kmehi_150.txt.gz
EHI
13 27 45 50 34 13 2 0 0 0 0 0 0 0 0 0 0 0 4 10 10 3 1 2 2 1 0 0 0 0 0 0 0 0 0 0 0 0 0 0 1 2 1 0 0 0 0 0 0
13 25 40 38 22 7 1 0 0 0 0 0 0 0 0 0 0 1 4 8 8 5 3 3 3 1 0 0 0 0 0 0 0 0 0 0 0 0 0 0 1 2 1 0 0 0 0 0 0
18 25 31 24 9 1 0 0 0 0 0 0 0 0 0 0 0 1 3 6 10 11 8 5 4 2 1 0 0 0 0 0 0 0 0 0 0 0 0 0 1 2 1 0 0 0 0 0 0
21 22 19 10 3 0 0 0 0 0 0 0 1 1 0 1 2 2 2 7 15 17 12 8 6 3 1 1 0 0 0 0 0 0 0 0 0 0 0 0 1 1 0 0 0 0 0 0 0
16 13 7 2 0 0 0 0 0 0 0 1 4 5 3 4 5 3 3 9 21 25 19 12 9 5 2 1 0 0 0 0 0 0 0 0 0 0 0 0 0 0 0 0 0 0 0 0 0
9 5 1 0 0 0 0 0 0 0 0 2 5 8 8 8 7 4 3 11 26 33 24 14 10 7 3 1 0 0 0 0 0 0 0 0 0 0 0 0 0 0 0 0 0 0 0 0 0
4 2 0 0 0 0 0 0 0 0 0 1 4 9 13 13 9 4 4 13 27 33 25 15 9 6 5 3 2 0 0 0 0 0 0 0 0 0 0 0 0 0 0 0 0 0 0 0 0
1 0 0 0 0 0 0 0 0 1 1 0 3 11 17 18 12 7 7 14 24 27 22 15 10 8 7 6 5 2 1 0 0 0 0 0 0 1 1 1 1 1 0 0 0 0 0 0 0
0 0 0 0 0 0 0 0 0 1 2 2 7 18 25 22 16 13 13 15 19 19 17 16 15 12 11 10 8 5 3 1 0 1 1 1 1 1 2 3 3 2 1 0 0 0 0 0 0
0 0 0 0 0 0 0 0 0 1 2 7 19 30 31 25 20 19 19 19 19 17 17 18 18 16 17 14 10 7 5 4 3 3 3 2 1 1 2 3 3 2 1 0 0 0 0 0 0
0 0 0 0 0 0 0 0 0 0 2 12 29 39 35 27 24 24 25 26 25 22 20 21 20 23 25 21 13 9 8 7 6 6 3 1 1 1 2 3 2 1 0 0 0 0 0 0 0
0 0 0 0 0 0 0 0 0 1 5 17 33 41 36 29 26 27 30 34 36 32 25 24 29 35 38 32 20 13 10 9 10 8 4 1 1 2 3 4 2 0 0 0 0 0 0 0 0
0 0 0 0 0 0 0 0 1 3 10 22 34 40 38 33 32 35 38 45 50 46 35 33 40 45 45 39 26 16 12 12 12 10 6 3 2 3 5 5 3 1 0 0 0 0 0 0 0
0 0 0 0 1 0 0 0 2 6 14 25 37 43 43 42 44 49 54 60 65 61 51 46 48 48 43 35 26 16 12 14 14 13 10 6 5 7 7 6 5 2 1 2 1 1 2 1 0
0 0 0 0 0 0 0 1 3 7 15 26 38 46 50 52 56 63 69 72 75 73 64 54 49 46 40 31 24 16 13 14 16 17 15 11 10 11 8 6 6 5 4 4 3 2 3 2 1
0 0 0 0 0 0 0 1 4 7 12 24 39 51 58 60 62 69 75 77 77 76 70 57 47 45 40 31 25 18 15 15 18 19 17 14 13 12 9 6 6 7 6 5 3 3 4 3 1
0 0 0 0 0 0 0 1 4 7 11 23 41 58 65 66 67 72 76 77 77 76 72 62 55 51 44 33 27 21 18 18 18 18 19 17 14 11 8 7 8 8 7 4 4 5 6 5 4
0 0 0 0 0 0 0 1 4 7 12 24 44 62 70 71 72 76 77 75 75 76 74 68 64 60 51 38 29 23 20 19 17 18 22 21 15 9 8 10 12 12 9 7 7 8 8 9 9
0 0 0 0 0 0 0 1 3 6 10 23 42 60 71 75 78 79 77 74 74 76 75 71 68 64 57 44 32 25 21 18 17 21 26 24 17 12 10 12 16 16 14 13 13 11 10 9 9
0 0 0 0 0 0 0 0 3 6 9 16 32 52 66 76 81 81 77 74 75 77 77 74 71 67 61 50 36 26 21 17 17 24 29 25 19 16 13 14 17 18 18 16 14 12 11 8 5
0 0 0 0 0 0 0 0 3 7 9 11 24 43 57 70 81 83 80 77 76 77 77 74 72 70 64 53 40 29 24 19 18 24 28 26 21 19 18 17 18 18 18 17 13 12 12 8 4
0 0 0 0 0 0 0 0 3 8 10 12 22 38 51 63 75 81 81 77 75 75 74 73 73 71 66 56 45 37 30 23 18 20 24 24 22 20 19 21 22 20 19 17 13 12 13 9 7
0 0 0 0 0 0 0 0 2 6 9 13 20 34 49 59 67 74 77 75 72 70 70 71 71 70 67 59 51 44 37 29 22 20 22 24 23 20 20 24 27 24 21 19 17 16 16 13 11
0 0 0 0 0 0 0 0 1 3 7 12 19 31 46 56 63 70 74 73 71 69 68 68 68 68 66 61 53 46 41 35 29 25 25 25 24 22 22 26 30 27 23 23 23 22 19 18 17
0 0 0 0 0 0 0 0 0 1 4 10 19 30 43 54 62 68 70 70 70 69 68 68 66 64 61 57 49 44 42 38 32 28 27 26 24 23 22 25 30 28 24 23 23 22 20 20 20
0 0 0 0 0 0 0 0 1 2 3 8 18 29 39 50 59 62 65 66 65 65 65 65 63 59 55 51 47 45 43 38 32 27 25 24 23 21 21 24 27 26 21 19 18 18 18 19 19
0 0 0 0 0 0 0 1 3 4 5 8 17 26 35 43 51 56 60 62 60 59 59 58 57 55 52 49 48 47 44 39 32 28 24 22 21 21 21 23 24 22 20 17 16 17 17 17 16
0 0 0 0 0 0 0 0 2 5 6 8 16 28 36 39 44 53 58 59 59 58 55 53 52 52 50 49 46 44 43 40 35 30 26 22 20 19 20 23 22 21 19 17 16 17 16 13 12
0 0 0 0 0 0 0 0 1 4 6 9 18 30 38 39 42 51 59 60 60 60 57 52 48 48 48 46 44 42 40 38 33 28 23 21 18 17 19 21 21 19 16 13 12 12 11 9 7
0 0 0 0 0 0 0 0 0 2 4 9 19 31 39 40 42 51 61 63 61 60 58 51 46 46 46 45 43 42 39 33 28 23 20 18 17 17 18 20 19 16 13 11 9 8 7 6 6

GEFSSGP_con_prob3kmehi_156.txt.gz
EHI
5 3 3 3 1 0 0 0 0 0 0 0 0 0 0 0 0 0 0 1 5 6 5 7 10 8 3 1 0 0 0 1 1 1 0 0 0 0 0 0 0 0 0 0 0 0 0 0 0
2 2 3 3 1 0 0 0 0 0 0 0 0 0 0 0 0 0 0 2 6 7 5 7 9 8 4 2 0 0 0 0 0 0 0 0 0 0 0 0 0 0 0 0 0 0 0 0 0
1 1 2 1 0 0 0 0 0 0 0 0 0 0 0 1 2 2 2 5 8 7 5 7 9 7 5 3 1 0 0 0 0 0 0 0 0 0 1 0 0 0 0 0 0 0 0 0 0
2 2 1 0 0 0 0 0 0 0 1 1 0 0 0 2 5 6 6 9 11 9 6 8 9 7 5 4 2 1 0 0 0 0 0 0 0 0 0 0 0 0 0 0 0 0 0 0 0
2 1 0 0 0 0 0 1 2 3 3 2 2 2 2 5 10 11 11 14 16 12 8 8 9 7 4 4 3 2 1 0 0 0 0 0 0 0 0 0 0 0 0 0 0 0 0 0 0
1 0 0 0 0 0 1 2 4 5 4 2 3 4 5 10 16 16 15 17 19 16 10 8 8 7 6 5 4 3 1 0 0 0 0 0 0 0 0 0 0 0 0 0 0 0 0 0 0
0 0 0 0 0 0 1 2 3 4 3 2 3 4 6 13 21 22 19 18 19 17 12 8 6 6 6 6 6 4 1 0 0 0 0 0 0 0 0 0 0 0 0 0 0 0 0 0 0
0 0 0 0 0 0 0 1 2 2 2 1 2 4 8 18 28 30 24 20 19 17 12 7 5 5 5 5 6 5 2 0 0 0 0 0 0 0 0 0 0 0 0 0 0 0 0 0 0
0 0 0 0 0 0 1 2 3 3 3 2 3 7 14 26 39 41 34 26 21 15 10 7 6 6 4 3 4 3 1 0 0 0 0 0 0 0 0 1 1 0 0 0 0 0 1 1 1
0 0 0 0 0 1 2 2 2 3 5 5 8 14 24 34 45 50 46 36 26 16 9 7 7 7 4 2 1 1 0 0 0 0 0 0 0 0 0 1 1 0 0 0 0 1 2 1 0
0 0 0 0 0 1 2 1 1 3 6 8 13 21 28 34 41 48 48 42 31 20 12 8 8 7 4 2 1 0 0 0 0 0 0 1 1 0 0 1 1 0 0 0 0 0 1 0 0
0 0 0 0 0 0 1 2 1 3 8 13 17 22 26 28 31 37 42 41 36 26 16 13 11 9 7 5 3 1 0 0 0 0 1 2 2 1 0 0 0 0 0 0 0 0 0 0 0
0 0 0 0 0 1 2 3 3 6 14 21 22 22 22 22 24 31 37 39 36 30 24 21 20 16 12 9 5 4 2 1 0 0 1 3 2 1 0 0 0 0 0 0 0 0 0 0 0
0 0 0 0 0 2 4 5 6 11 21 28 27 25 23 23 27 33 38 38 36 35 32 30 27 24 17 10 6 6 5 4 2 1 2 3 2 1 0 0 0 0 0 0 0 0 0 0 0
0 0 0 0 0 2 6 7 9 17 28 32 31 29 27 28 33 38 39 38 38 41 40 35 32 27 17 8 6 7 7 6 4 3 2 2 2 0 0 0 0 0 0 0 0 0 0 0 0
0 0 0 0 0 1 5 9 13 23 34 37 34 33 32 34 38 41 43 41 42 45 43 38 35 28 17 10 9 10 9 7 6 4 3 3 3 1 1 1 0 0 0 0 0 0 0 0 0
0 0 0 0 0 0 3 9 16 27 38 42 39 36 36 40 43 46 49 49 48 47 43 39 35 29 21 15 13 14 11 8 6 5 4 4 4 3 2 2 1 1 0 0 0 0 0 0 0
0 0 0 0 0 0 2 8 17 29 41 44 41 39 41 44 46 51 57 59 55 48 43 41 36 30 23 18 15 14 12 10 7 5 3 3 4 3 3 3 3 2 1 1 0 0 0 0 0
0 0 0 0 0 1 2 7 15 28 40 43 43 45 47 48 50 57 64 66 61 54 48 44 39 31 24 18 14 12 11 11 7 3 2 2 3 2 3 3 3 3 3 2 1 0 0 0 0
0 0 0 0 0 1 2 5 11 22 34 40 45 51 54 55 56 61 67 69 66 61 55 48 41 34 26 18 11 8 8 8 6 3 2 2 2 1 1 2 3 3 3 2 1 0 0 0 0
0 0 0 0 0 1 1 2 6 15 26 37 46 55 59 60 61 63 66 68 67 64 59 53 45 36 28 19 11 7 5 4 4 3 3 3 2 1 1 1 2 3 4 2 0 0 0 0 0
0 0 0 0 0 0 0 0 3 12 25 36 46 55 61 61 62 63 63 64 64 63 61 57 51 40 29 21 15 10 7 4 2 2 3 3 3 3 2 1 2 4 4 2 0 0 0 0 0
0 0 0 0 0 0 0 0 3 11 23 35 45 55 61 61 60 60 60 59 61 62 61 59 54 44 33 24 18 13 10 6 3 3 4 4 4 4 3 2 2 3 2 1 0 0 0 0 0
0 0 0 0 0 0 0 0 2 8 19 32 45 54 59 59 57 55 55 56 58 60 63 61 55 47 37 28 21 16 12 8 6 5 6 5 4 4 4 2 1 1 1 0 0 0 0 0 0
0 0 0 0 0 0 0 0 1 5 17 33 46 53 56 56 54 52 52 54 57 61 64 63 56 47 39 32 25 19 13 10 8 7 6 5 6 6 5 3 1 0 0 0 0 0 0 0 0
0 0 0 0 0 0 0 1 3 9 22 37 45 48 51 53 53 52 51 53 57 61 62 59 52 44 39 34 28 21 15 11 9 6 5 4 5 6 5 3 2 0 0 0 0 0 0 0 0
0 0 0 0 0 0 0 1 5 16 30 39 41 42 45 50 53 52 51 51 54 56 55 52 47 42 38 34 28 23 16 11 8 6 4 4 4 4 4 3 2 1 0 0 0 0 0 0 0
0 0 0 0 0 0 0 0 5 16 29 35 37 37 39 45 49 50 51 50 49 50 50 47 43 39 34 30 25 21 16 10 7 6 5 4 3 3 3 3 3 2 1 0 0 0 0 0 0
0 0 0 0 0 0 0 0 3 10 21 29 32 32 33 38 45 50 49 48 49 50 49 44 39 35 29 25 22 19 14 10 7 6 5 4 3 2 2 2 2 2 1 0 0 0 0 0 0
0 0 0 0 0 0 0 0 2 7 16 25 29 29 30 35 43 49 48 47 50 53 50 43 38 34 27 22 20 18 14 9 7 6 5 3 1 1 1 1 1 1 0 0 0 0 0 0 0

GEFSSGP_con_prob3kmehi_162.txt.gz
EHI
2 2 1 0 0 0 0 0 0 0 0 0 0 0 0 0 0 0 0 0 1 2 2 6 11 11 7 4 3 3 3 3 3 1 0 0 0 0 0 0 0 0 1 1 1 1 2 2 1
1 1 0 0 0 0 0 0 0 0 0 0 0 0 0 0 0 0 0 0 1 2 3 6 11 10 7 4 2 3 3 3 2 0 0 0 0 0 0 0 0 1 2 2 2 2 2 2 1
0 0 0 0 0 0 0 0 0 0 0 0 0 0 0 0 0 0 0 1 2 3 3 6 9 9 6 4 2 2 3 2 1 0 0 0 0 0 0 0 0 1 1 1 1 2 3 3 2
0 0 0 0 0 0 0 0 0 0 0 0 0 0 0 0 0 0 0 1 3 3 2 4 7 8 6 5 2 1 2 2 1 1 1 0 0 0 0 0 0 0 0 0 1 2 3 3 3
0 0 0 0 0 0 0 0 0 0 0 0 0 0 0 0 1 1 1 2 3 3 2 3 7 8 7 5 2 1 1 2 1 1 1 0 0 0 0 0 0 0 0 0 2 3 3 3 3
0 0 0 0 0 0 0 0 0 1 0 0 0 0 0 0 1 1 1 1 3 3 2 3 5 6 6 5 2 0 1 1 0 0 0 0 0 0 0 0 0 0 0 0 1 2 2 2 2
0 0 0 0 0 0 0 0 0 0 0 0 0 0 0 0 1 2 1 1 3 3 3 3 2 2 3 3 1 0 0 0 0 0 0 0 0 0 0 0 0 0 0 0 0 1 1 1 1
0 0 0 0 0 0 0 0 0 0 0 0 0 0 1 2 4 5 4 3 3 3 3 2 1 1 1 1 0 0 0 0 0 0 0 0 0 0 0 0 0 0 0 0 0 0 0 0 0
0 0 0 0 0 0 0 0 0 0 0 1 1 2 5 10 11 10 7 5 4 4 3 1 1 1 0 0 0 0 0 0 0 0 0 0 0 0 0 0 0 0 0 0 0 0 0 0 0
0 0 0 0 0 0 0 0 0 0 0 2 4 8 16 22 19 13 9 7 7 6 4 2 1 1 0 0 0 0 0 0 0 0 0 0 0 0 0 0 0 0 0 0 0 0 0 0 0
0 0 0 0 0 0 0 1 1 1 0 3 9 19 28 28 21 14 10 9 10 9 5 3 2 1 0 0 0 0 0 0 0 0 0 0 0 0 0 0 0 0 0 0 0 0 0 0 0
0 0 0 0 0 0 0 1 2 2 1 5 15 28 33 27 19 13 11 10 11 9 5 3 3 2 1 0 0 0 0 0 0 0 0 0 0 0 0 0 0 0 0 0 0 0 0 0 0
0 0 0 0 0 0 0 2 2 2 4 10 21 31 31 23 16 13 10 9 9 8 6 5 4 3 2 1 0 0 0 0 0 0 0 0 0 0 0 0 0 0 0 0 0 0 0 0 0
0 0 0 0 0 0 0 2 2 3 7 14 22 27 25 20 18 16 12 10 9 7 6 7 6 4 3 3 1 0 0 0 0 0 0 0 0 0 0 0 0 0 0 0 0 0 0 0 0
0 0 0 0 0 0 1 2 3 6 12 18 20 21 20 18 18 19 16 11 8 5 5 7 6 4 3 3 2 1 0 0 0 0 0 0 0 0 0 0 0 0 0 0 0 0 0 0 0
0 0 0 0 0 0 1 3 5 9 16 20 20 19 18 16 16 18 17 13 7 4 5 7 7 5 4 3 3 2 1 0 0 0 0 0 0 0 0 0 0 0 0 0 0 0 0 0 0
0 0 0 0 0 1 2 4 7 12 19 23 22 20 19 19 18 17 17 15 9 5 6 8 10 8 4 3 3 3 2 1 0 0 0 0 0 0 1 0 0 0 0 0 0 0 0 0 0
0 0 0 0 0 1 2 4 8 15 21 24 24 22 22 23 21 20 20 17 13 10 10 11 12 9 5 3 3 3 2 1 0 0 0 0 0 0 0 0 0 0 0 0 0 0 0 0 0
0 0 0 0 0 1 1 2 6 13 20 25 24 24 26 26 25 24 24 22 19 17 15 14 13 10 5 4 4 3 2 1 0 0 0 0 0 0 0 0 0 0 0 0 0 0 0 0 0
0 0 0 0 0 0 0 0 2 7 14 19 22 24 28 30 29 28 28 28 26 23 20 17 14 10 6 5 4 2 1 1 1 0 0 0 0 0 0 0 0 0 0 0 0 0 0 0 0
0 0 0 0 0 0 0 0 1 4 7 10 16 21 27 32 33 33 33 32 29 26 23 20 16 11 7 5 4 2 1 1 1 1 1 0 0 0 0 0 0 0 0 0 0 0 0 0 0
0 0 0 0 0 0 0 0 1 2 3 5 11 19 27 32 35 36 35 32 28 25 24 21 17 12 8 4 3 3 2 2 2 2 1 0 0 0 0 1 1 1 1 0 0 0 0 0 0
0 0 0 0 0 0 0 0 0 1 3 4 9 17 24 29 33 34 34 31 26 24 24 21 16 11 7 5 4 3 2 1 1 1 1 0 0 0 0 1 2 2 2 1 0 0 0 0 0
0 0 0 0 0 0 0 0 0 1 2 5 10 17 20 23 27 29 30 29 26 25 25 22 17 11 7 5 3 3 3 1 0 0 0 0 0 0 0 0 1 1 1 1 0 0 0 0 0
0 0 0 0 0 0 0 0 0 0 1 4 8 15 19 19 21 24 27 28 28 28 27 25 20 14 9 6 3 2 2 1 0 0 0 1 1 1 0 0 0 0 0 0 0 0 0 0 0
0 0 0 0 0 0 0 0 0 0 1 3 7 13 18 19 19 21 24 27 29 30 30 26 21 17 13 9 6 3 2 0 0 0 1 2 2 1 0 0 0 0 0 0 0 0 0 0 0
0 0 0 0 0 0 0 0 0 0 1 4 7 12 19 21 20 19 21 24 28 31 30 26 21 17 14 12 9 6 2 0 0 0 1 2 1 1 0 0 0 0 0 0 0 0 0 0 0
0 0 0 0 0 0 0 0 0 0 1 4 7 12 20 23 22 20 20 22 25 28 27 24 20 16 13 11 10 7 2 0 0 0 1 1 0 0 0 0 0 0 0 0 0 0 0 0 0
0 0 0 0 0 0 0 0 0 0 1 4 6 12 19 23 22 21 21 22 23 25 25 23 18 13 10 9 8 5 2 0 0 0 0 0 0 0 0 0 0 0 0 0 0 0 0 0 0
0 0 0 0 0 0 0 0 0 0 1 3 6 11 18 22 21 20 22 23 23 24 25 23 19 12 9 8 7 4 1 0 0 0 0 0 0 0 0 1 1 1 0 0 0 0 0 0 0

GEFSSGP_con_prob3kmehi_168.txt.gz
EHI
10 11 14 13 6 1 0 0 0 0 0 0 0 0 0 0 0 0 0 0 1 2 1 1 1 1 0 1 1 1 0 0 0 0 0 0 0 0 1 1 1 0 0 0 0 0 0 0 0
7 8 12 10 4 0 0 0 0 0 0 0 0 0 0 0 0 0 0 0 1 1 1 1 2 1 1 1 2 2 1 0 0 0 0 0 0 0 0 0 0 0 0 0 0 0 0 0 0
4 5 5 4 1 0 0 0 0 0 0 0 0 0 0 0 0 0 0 0 0 0 1 2 3 2 1 1 2 2 1 0 0 0 0 0 0 0 0 0 0 0 0 0 0 0 0 0 0
4 3 1 0 0 0 0 0 0 0 0 0 0 0 0 0 0 0 0 0 0 0 1 1 1 1 0 0 1 1 0 0 0 0 0 0 0 0 0 0 0 0 0 0 0 0 0 0 0
2 1 0 0 0 0 0 0 0 0 0 0 0 0 1 1 0 0 0 0 0 0 0 0 0 0 0 0 0 0 0 0 0 1 0 0 0 0 0 0 0 0 0 0 0 0 0 0 0
1 0 0 0 0 0 0 0 0 0 0 0 0 1 2 2 1 1 1 0 0 0 0 0 0 0 0 0 0 0 1 0 0 0 0 0 0 0 0 0 0 0 0 0 0 0 0 0 0
0 0 0 0 0 0 0 0 0 0 0 0 0 1 3 5 4 3 2 1 0 0 0 0 0 1 1 0 0 0 0 0 0 0 0 0 0 0 0 0 0 0 0 0 0 0 0 0 0
0 0 0 0 0 0 0 0 0 0 0 0 0 1 5 9 9 6 3 2 1 0 0 0 0 0 1 1 0 0 0 0 0 0 0 0 0 0 0 0 0 0 0 0 0 0 0 0 0
0 0 0 0 0 0 0 0 0 0 0 0 0 3 10 16 15 9 5 4 3 1 0 0 0 0 0 0 0 0 0 0 0 0 0 0 0 0 0 0 0 0 0 0 0 0 0 0 0
0 0 0 0 0 0 0 0 0 0 0 0 3 9 17 20 16 10 7 6 4 2 2 1 1 1 0 0 0 0 0 1 1 1 1 0 0 0 0 0 0 0 0 0 0 0 0 0 0
0 0 0 0 0 0 0 0 0 0 0 1 7 16 21 19 14 10 8 7 5 4 3 2 1 0 0 0 0 1 1 2 2 2 2 1 1 0 0 0 0 0 0 0 0 0 0 0 0
0 0 0 0 0 0 0 0 0 0 0 2 9 18 20 17 13 9 8 7 7 5 4 2 1 0 0 1 1 2 3 3 3 3 3 3 2 1 0 0 0 0 0 0 0 0 0 0 0
0 0 0 0 0 0 0 0 0 1 1 3 10 16 17 16 13 11 11 12 11 9 8 7 6 4 4 3 3 3 3 3 3 3 3 3 2 1 0 0 0 0 0 0 0 0 0 0 0
0 0 0 0 0 0 0 0 1 2 3 6 11 14 16 16 14 15 17 18 16 14 14 15 15 13 11 7 4 3 3 3 3 3 3 3 2 1 0 0 0 0 0 0 0 0 0 0 0
0 0 0 0 0 0 0 0 2 3 5 9 11 14 18 18 15 15 18 19 17 16 16 18 19 19 16 11 6 4 3 3 2 3 4 3 2 1 0 0 0 0 0 0 0 0 0 0 0
0 0 0 0 0 0 0 1 3 4 6 10 12 15 21 21 15 13 15 16 16 17 19 19 19 20 18 13 7 5 4 3 3 3 4 3 2 1 0 1 1 1 1 0 0 0 0 0 0
0 0 0 0 0 0 0 1 3 3 4 9 13 19 25 24 18 14 14 15 18 21 22 22 22 22 19 14 9 6 5 4 4 3 2 2 1 0 1 2 2 2 2 0 0 0 0 0 0
0 0 0 0 0 0 0 1 2 2 3 7 13 20 25 25 20 16 16 18 22 25 26 27 27 27 22 17 13 8 6 4 4 3 2 1 0 0 1 2 2 2 1 0 0 0 0 0 0
0 0 0 0 0 0 0 1 2 3 3 7 14 19 21 22 22 22 23 25 29 32 33 33 33 31 27 22 16 11 6 3 2 3 2 1 0 1 1 1 1 2 2 1 0 0 0 0 0
0 0 0 0 0 0 0 1 3 3 3 6 12 16 17 21 28 32 34 33 35 39 39 37 37 35 30 24 17 12 7 3 2 3 3 2 1 1 1 1 2 2 3 2 1 0 0 0 0
0 0 0 0 0 0 0 1 2 3 2 4 9 13 16 22 33 41 42 38 35 37 38 37 41 39 33 24 17 13 9 5 3 4 4 2 2 2 1 1 1 1 2 2 1 0 0 0 1
0 0 0 0 0 0 0 0 1 1 2 4 9 12 16 24 34 42 44 38 31 30 33 39 43 43 37 29 21 15 11 7 5 4 4 3 2 2 2 1 1 1 2 2 1 1 1 2 2
0 0 0 0 0 0 0 0 0 0 1 5 10 14 18 25 32 39 42 35 25 23 29 37 43 44 41 35 29 22 14 9 7 5 4 4 3 3 2 1 2 2 3 3 3 3 3 4 4
0 0 0 0 0 0 0 0 0 0 1 3 9 16 22 26 30 36 39 35 26 22 27 35 42 43 40 36 32 26 19 14 12 9 6 6 5 5 3 2 3 4 4 4 4 5 6 6 6
0 0 0 0 0 0 0 0 0 0 0 2 6 14 24 29 31 36 39 39 34 30 31 37 42 42 36 31 28 26 22 19 17 12 9 8 6 5 4 3 4 5 4 4 5 6 7 7 7
0 0 0 0 0 0 0 0 0 0 0 1 4 13 24 32 36 38 39 40 40 37 36 40 43 41 34 28 25 25 24 22 18 14 11 8 6 5 4 3 3 4 5 6 7 6 7 8 9
0 0 0 0 0 0 0 0 0 0 0 2 5 13 24 34 40 40 37 36 36 35 35 39 43 40 34 28 25 26 27 25 21 17 12 8 7 5 5 4 4 4 6 9 8 7 8 10 10
0 0 0 0 0 0 0 0 0 0 2 4 7 14 27 37 40 41 38 35 33 31 33 39 41 40 36 31 28 28 29 28 23 18 14 10 7 5 4 4 4 5 8 10 9 8 8 9 10
0 0 0 0 0 0 0 0 0 1 3 5 8 17 31 39 39 40 42 39 34 33 36 40 40 38 36 33 30 30 30 27 22 18 16 13 8 6 5 5 4 5 6 8 8 6 6 7 7
0 0 0 0 0 0 0 0 0 1 3 5 9 19 32 39 40 41 43 41 36 35 39 40 39 37 35 32 32 33 31 25 20 18 18 16 12 8 7 6 4 4 5 6 6 5 4 4 4

GEFSSGP_con_prob3kmehi_174.txt.gz
EHI
4 16 35 42 27 8 1 0 0 0 0 0 0 0 0 0 0 0 2 6 7 5 3 2 1 0 0 0 0 0 0 0 0 0 0 0 0 0 0 0 0 0 0 0 0 0 0 0 0
7 20 34 32 16 4 0 0 0 0 0 0 0 0 0 0 0 0 2 5 8 7 5 4 2 1 0 0 0 0 0 0 0 0 0 0 0 0 0 0 0 0 0 0 0 0 0 0 0
13 22 26 16 5 0 0 0 0 0 0 0 0 0 0 0 0 1 2 5 9 11 11 7 3 1 0 0 0 0 0 0 0 0 0 0 0 0 0 0 0 0 0 0 0 0 0 0 0
18 20 14 5 1 0 0 0 0 0 0 0 1 0 0 0 0 1 3 5 9 13 12 9 5 2 0 0 0 0 0 0 0 0 0 0 0 0 0 0 0 0 0 0 0 0 0 0 0
17 14 6 1 0 0 0 0 0 0 0 1 2 2 1 1 1 2 3 5 9 13 12 9 7 4 1 0 1 1 1 0 0 0 0 0 0 0 0 0 0 0 0 0 0 0 0 0 0
10 6 2 0 0 0 0 0 0 0 0 1 2 3 3 2 1 1 2 3 9 14 12 8 7 5 2 1 2 2 1 1 1 1 0 0 0 0 0 0 0 0 0 0 0 0 0 0 0
3 2 0 0 0 0 0 0 0 0 0 0 1 3 4 3 2 1 1 2 7 13 11 5 4 5 4 3 3 3 3 3 2 1 0 0 0 0 0 0 1 0 0 0 0 1 0 0 0
1 0 0 0 0 0 0 0 0 0 0 0 1 5 8 6 3 1 2 4 7 10 9 6 5 6 5 4 4 3 3 3 3 2 1 1 1 1 1 1 1 0 0 0 0 0 0 0 0
0 0 0 0 0 0 0 0 0 0 0 1 4 9 12 10 6 5 7 9 10 9 9 9 10 9 7 5 5 4 4 4 4 3 3 2 3 3 2 2 2 1 0 0 0 0 0 0 0
0 0 0 0 0 0 0 0 0 0 1 4 10 15 17 14 10 8 10 12 11 10 11 12 13 13 10 7 6 5 6 6 5 5 4 3 3 3 3 4 3 2 0 0 1 1 1 0 0
0 0 0 0 0 0 0 0 0 0 1 7 16 20 21 19 15 12 12 14 14 13 12 13 14 14 13 10 7 5 6 6 5 6 5 3 2 2 3 4 3 2 1 1 2 3 2 0 0
0 0 0 0 0 0 0 0 0 0 1 7 15 20 22 22 19 15 16 19 20 19 17 17 18 18 18 15 10 6 5 5 6 7 6 4 3 1 2 3 3 2 1 2 2 2 1 0 0
0 0 0 0 0 0 0 0 0 0 1 5 11 16 20 24 24 23 27 31 31 29 27 27 27 26 22 19 14 8 6 7 9 8 7 5 4 3 2 3 3 2 2 3 2 1 0 1 1
0 0 0 0 0 0 0 0 0 1 2 5 9 13 18 24 29 34 38 41 41 38 37 36 34 29 23 18 15 11 8 9 10 10 8 7 6 5 4 4 4 3 3 4 3 1 1 1 2
0 0 0 0 0 0 0 0 0 2 5 8 11 15 20 27 35 42 43 44 47 47 44 40 36 31 23 17 14 12 9 9 11 12 10 9 8 7 5 4 4 5 4 4 3 2 2 2 1
0 0 0 0 0 0 0 0 1 4 8 12 16 22 28 34 40 45 45 48 55 57 51 42 37 34 27 19 15 13 11 12 14 15 14 13 11 9 7 4 4 5 5 4 4 3 3 2 1
0 0 0 0 0 0 0 0 0 3 9 15 21 30 39 43 46 50 51 57 66 68 60 49 43 40 33 25 19 16 15 15 17 19 20 16 11 9 7 6 4 3 4 5 3 2 2 2 1
0 0 0 0 0 0 0 0 0 2 8 16 25 37 47 50 52 55 57 63 73 77 71 61 52 44 37 31 25 21 17 18 20 24 24 17 9 6 8 9 6 4 4 4 3 1 1 2 2
0 0 0 0 0 0 0 1 2 2 6 15 28 40 49 55 59 60 60 64 74 82 81 72 60 50 41 35 31 26 22 22 24 28 27 18 9 6 9 10 9 6 5 6 5 3 2 2 3
0 0 0 0 0 0 0 1 2 3 3 11 25 39 50 60 68 70 66 66 74 85 86 77 67 57 48 40 35 29 26 25 25 30 30 22 12 8 8 10 10 9 8 10 9 6 4 4 4
0 0 0 0 0 0 0 1 2 2 2 7 16 30 46 62 75 79 74 71 76 83 85 80 73 63 53 46 38 31 27 25 27 34 37 30 20 14 11 12 13 12 11 12 11 9 8 6 5
0 0 0 0 0 0 0 1 2 2 3 5 10 20 37 57 73 79 79 76 75 79 84 83 78 68 57 48 40 33 30 28 31 40 42 36 27 20 18 18 18 17 14 12 10 10 11 9 8
0 0 0 0 0 0 0 0 1 2 3 5 9 16 29 47 64 75 80 78 74 74 80 83 80 73 62 52 42 36 33 32 34 40 40 36 30 25 23 24 23 20 16 13 11 11 12 11 10
0 0 0 0 0 0 0 0 0 1 3 6 9 16 28 42 57 71 78 78 73 71 76 82 81 76 68 56 45 40 37 35 36 39 38 34 31 29 27 28 28 25 21 18 15 13 12 12 12
0 0 0 0 0 0 0 0 0 1 3 6 9 15 27 40 52 64 73 75 74 72 76 80 81 77 70 60 50 44 39 37 39 42 41 37 33 31 29 28 28 27 25 23 19 16 14 14 14
0 0 0 0 0 0 0 0 0 1 3 5 8 12 21 33 45 57 67 73 75 75 76 80 80 78 72 64 57 50 42 38 41 43 41 39 34 28 26 25 23 23 23 22 21 19 17 17 17
0 0 0 0 0 0 0 0 1 2 4 6 9 12 17 26 39 53 65 71 73 75 77 79 79 77 73 67 61 54 47 44 46 43 38 35 29 24 23 20 18 19 20 21 21 20 18 18 18
0 0 0 0 0 0 0 0 2 5 7 10 14 17 21 27 38 53 64 68 69 74 77 77 77 78 75 70 63 56 52 52 51 45 37 30 24 21 20 19 17 18 19 20 20 17 16 16 16
0 0 0 0 0 0 0 1 4 7 9 12 17 23 26 30 40 54 64 65 64 69 75 76 77 78 78 74 67 60 57 56 53 46 38 28 21 19 20 20 17 16 17 19 19 16 15 15 12
0 0 0 0 0 0 0 1 4 7 9 11 16 23 28 32 41 55 65 64 62 66 73 76 77 78 79 75 70 64 60 58 54 48 40 31 22 20 21 20 17 16 18 20 19 17 16 14 10

GEFSSGP_con_prob3kmehi_180.txt.gz
EHI
14 8 3 1 0 0 0 0 0 0 0 0 0 0 0 0 0 1 0 2 4 5 4 5 6 6 6 3 1 0 0 0 0 0 0 1 2 1 0 0 0 0 0 0 0 0 0 0 0
6 4 1 0 0 0 0 0 0 0 0 0 0 0 0 1 1 1 1 2 4 4 3 4 6 7 6 3 1 0 0 0 0 0 1 2 2 1 0 0 0 0 0 0 0 0 0 0 0
1 1 1 0 0 0 0 0 0 0 0 0 0 0 1 2 3 3 2 3 3 3 3 4 6 6 5 4 2 1 0 0 0 0 1 2 2 1 0 0 0 0 0 0 0 0 0 0 0
1 1 1 0 0 0 0 0 0 0 0 0 0 0 1 3 5 6 5 4 3 3 3 5 7 6 4 3 3 2 1 0 0 0 0 1 1 0 0 0 0 0 0 0 0 0 0 0 0
1 1 1 1 0 0 0 0 0 0 0 1 2 1 2 6 11 11 8 4 3 3 3 5 7 6 4 3 3 3 2 0 0 0 0 0 0 0 0 0 0 0 0 0 0 0 0 0 0
2 2 2 1 0 0 0 0 1 1 2 3 3 2 3 9 16 16 9 4 3 3 2 3 5 6 5 4 3 3 1 1 1 1 0 0 0 0 0 0 0 0 0 0 0 0 0 0 0
2 2 1 0 0 0 0 0 1 2 3 4 4 3 4 10 19 20 12 5 3 2 1 1 2 3 4 4 3 3 2 2 2 2 1 1 1 0 0 0 0 0 0 0 0 0 0 0 0
1 1 0 0 0 0 0 0 1 2 3 4 3 3 5 11 20 23 16 8 4 3 1 0 0 0 2 3 3 3 2 2 3 3 3 3 2 0 0 0 0 0 0 0 0 0 0 0 0
1 0 0 0 0 0 0 0 0 1 2 3 3 4 6 13 23 27 21 13 8 6 3 1 0 0 1 2 3 3 2 1 2 3 4 3 1 0 0 0 0 0 0 0 0 0 0 0 0
1 0 0 0 0 0 1 1 0 1 2 4 6 7 9 15 24 29 27 21 16 10 5 1 0 0 1 2 2 2 1 0 1 1 1 1 0 0 0 0 0 0 0 0 0 0 0 0 0
0 0 0 0 0 0 1 2 1 1 2 5 9 10 10 14 19 23 27 28 24 18 10 4 2 1 0 1 1 1 0 0 0 0 0 0 0 0 1 0 0 0 0 0 0 0 0 0 0
0 0 0 0 0 0 1 1 1 2 5 8 10 11 10 11 13 16 22 28 29 25 18 10 5 2 1 1 0 0 0 0 0 0 0 0 0 0 0 0 0 0 0 0 0 0 0 0 0
0 0 0 0 0 0 0 1 2 5 10 14 13 10 10 10 12 13 18 25 29 30 25 17 10 6 4 3 2 1 0 0 0 1 1 1 0 0 0 0 0 0 0 0 0 0 0 0 0
0 0 0 0 0 0 0 1 4 10 17 19 15 12 13 16 17 16 18 24 30 32 28 22 17 14 10 5 3 2 1 1 1 1 2 1 0 0 0 0 0 0 0 0 0 0 0 0 0
0 0 0 0 0 0 0 1 6 15 22 20 16 16 20 25 25 22 22 27 33 34 30 25 23 19 12 6 2 3 2 2 1 1 1 1 1 0 0 0 0 0 0 0 0 0 0 0 0
0 0 0 0 0 0 0 0 6 18 25 22 19 21 26 30 31 29 30 34 38 38 33 28 25 19 12 6 3 3 4 3 4 3 2 2 2 1 0 0 0 0 0 0 0 0 0 0 0
0 0 0 0 0 0 0 0 4 15 25 26 24 25 28 31 31 34 38 43 43 40 35 32 27 19 12 8 6 5 5 7 7 6 4 4 4 3 2 1 1 0 0 0 0 0 0 0 0
0 0 0 0 0 0 0 1 3 10 20 27 28 28 31 32 32 37 45 50 48 42 38 35 30 22 15 10 7 5 7 8 7 5 4 4 5 4 4 3 2 1 0 0 0 0 0 0 0
0 0 0 0 0 0 0 1 2 6 15 25 29 32 35 36 38 45 53 56 54 49 43 39 34 26 18 12 8 6 6 7 6 4 3 3 5 5 4 3 2 1 0 0 0 0 0 0 0
0 0 0 0 0 0 0 0 1 4 10 21 30 35 40 43 48 54 60 63 64 61 53 46 40 30 21 15 12 10 7 5 4 4 2 3 5 4 3 1 1 0 0 0 0 0 0 0 0
0 0 0 0 0 0 0 0 1 3 7 15 26 37 45 48 53 59 63 66 70 69 64 56 47 36 25 18 17 17 14 8 4 3 2 3 4 3 1 0 0 0 0 0 0 0 0 0 0
0 0 0 0 0 0 0 0 1 3 6 11 23 37 46 49 53 58 63 67 71 73 70 62 53 43 31 23 22 23 21 14 6 3 3 3 3 2 1 0 0 0 0 0 0 0 0 0 1
0 0 0 0 0 0 0 0 1 2 5 11 23 37 46 50 53 58 62 66 71 75 72 64 55 47 36 28 24 25 24 18 10 5 4 3 3 1 1 1 0 0 0 0 1 1 0 0 1
0 0 0 0 0 0 0 0 0 1 5 14 25 38 47 54 57 59 61 65 70 75 73 65 58 51 41 32 26 25 24 20 14 9 6 4 2 1 1 1 0 0 0 1 2 1 0 0 1
0 0 0 0 0 0 0 0 0 1 5 14 25 36 48 57 59 57 58 62 68 72 71 65 61 56 45 36 29 24 21 19 16 12 7 4 2 1 1 1 0 0 1 2 2 1 1 0 0
0 0 0 0 0 0 0 0 0 2 6 14 23 34 46 53 54 53 55 60 65 68 68 66 63 58 49 41 33 24 19 17 18 14 8 4 2 1 0 0 0 0 1 3 4 3 2 1 0
0 0 0 0 0 0 0 1 2 5 11 18 26 35 41 45 48 50 52 58 63 65 65 65 64 59 52 46 38 28 21 19 19 16 11 6 4 3 2 2 1 2 3 4 5 5 3 2 1
0 0 0 0 0 0 0 0 2 8 14 21 29 36 38 41 47 51 52 55 60 60 60 62 63 61 55 50 44 33 25 21 20 18 14 10 7 6 7 6 5 5 5 6 6 5 4 3 3
0 0 0 0 0 0 0 0 2 8 15 22 29 33 34 39 47 52 52 54 57 58 59 61 64 62 58 55 49 38 28 23 22 21 16 11 9 10 11 10 8 7 6 6 6 5 4 3 3
0 0 0 0 0 0 0 0 2 9 16 22 29 32 32 37 45 51 52 52 55 59 60 62 64 63 59 56 51 40 30 25 25 23 17 12 11 12 12 11 8 7 6 6 6 6 4 3 3

GEFSSGP_con_prob3kmehi_186.txt.gz
EHI
8 3 0 0 0 0 0 0 0 0 0 0 0 1 2 2 1 0 0 0 1 1 1 3 5 6 4 3 1 0 0 1 2 2 1 0 0 0 0 0 1 0 0 0 0 0 0 0 0
4 2 0 0 0 0 0 0 0 0 0 0 0 0 1 1 0 0 0 0 1 2 1 3 6 7 5 3 1 0 0 1 3 3 1 1 1 1 0 0 1 0 0 0 0 0 0 0 0
1 0 0 0 0 0 0 0 0 0 0 0 0 0 0 0 0 0 0 0 1 1 1 3 6 7 6 4 1 0 0 2 3 3 2 2 2 2 1 0 0 0 0 0 0 0 0 0 0
0 0 0 0 0 0 0 0 0 0 0 0 0 0 0 0 0 0 0 0 0 0 0 2 5 6 5 3 2 1 1 2 4 3 2 1 2 2 1 0 0 0 0 0 0 0 0 0 0
0 0 0 0 0 0 0 0 0 0 0 1 1 0 0 0 0 0 0 1 1 1 0 1 4 5 4 3 3 2 3 4 5 4 1 0 1 1 0 0 0 0 0 0 0 0 0 0 0
0 0 0 0 0 0 0 0 0 0 1 2 2 1 0 0 0 0 0 1 2 2 0 1 3 3 3 3 3 3 4 5 4 3 1 0 0 0 0 0 0 0 0 0 0 0 0 0 0
0 0 0 0 0 0 0 0 0 0 1 2 2 1 0 0 0 0 0 1 2 1 0 0 1 1 2 3 3 3 3 4 3 2 1 1 0 0 0 0 0 0 0 0 0 0 0 0 0
0 0 0 0 0 0 0 0 0 0 1 2 1 0 0 0 1 1 0 1 1 1 0 0 0 0 1 1 2 2 2 2 2 1 1 0 0 0 0 0 0 0 0 0 0 0 0 0 0
0 0 0 0 0 0 0 0 0 1 2 2 1 0 2 3 3 2 2 2 2 3 1 0 0 0 0 0 1 1 1 1 1 1 0 0 0 0 0 0 0 0 0 0 0 0 0 0 0
0 0 0 0 0 0 0 0 0 1 2 3 2 3 7 10 7 4 3 3 4 5 3 1 0 0 0 0 0 0 0 0 0 0 0 0 0 0 0 0 0 0 0 0 0 0 0 0 0
0 0 0 0 0 0 0 0 0 1 2 3 4 7 14 15 9 4 3 4 4 5 3 1 0 0 0 0 0 0 0 0 0 0 0 0 0 0 0 0 0 0 0 0 0 0 0 0 0
0 0 0 0 0 0 0 0 0 0 1 2 5 12 19 17 9 4 3 3 3 4 3 1 0 0 0 0 0 0 0 0 0 0 0 0 0 0 0 0 0 0 0 0 0 0 0 0 0
0 0 0 0 0 0 0 0 0 0 0 1 5 13 18 16 8 4 2 3 4 3 2 1 0 0 0 0 0 0 0 0 0 0 0 0 0 0 0 0 0 0 0 0 0 0 0 0 0
0 0 0 0 0 0 0 0 0 0 1 3 5 10 13 12 9 7 5 6 6 4 1 0 0 0 0 0 0 0 0 0 0 0 0 0 0 0 0 0 0 0 0 0 0 0 0 0 0
0 0 0 0 0 0 0 0 0 1 3 4 6 7 9 9 9 11 11 10 7 4 1 1 1 0 0 0 0 0 0 0 0 0 0 0 0 0 0 0 0 0 0 0 0 0 0 0 0
0 0 0 0 0 0 0 0 1 2 4 5 6 7 7 6 7 9 11 11 9 5 3 1 1 0 0 0 1 1 1 1 1 0 0 0 1 1 0 0 0 1 1 0 0 0 0 0 0
0 0 0 0 0 0 0 0 1 2 4 5 5 5 5 3 4 5 8 10 11 9 6 3 2 1 0 1 3 3 4 4 2 0 0 1 2 2 1 1 1 2 1 0 0 0 0 0 0
0 0 0 0 0 0 0 0 0 1 3 4 4 4 3 2 2 4 8 13 14 13 11 8 5 2 2 4 6 6 6 5 2 0 0 1 3 3 2 1 1 1 1 0 0 0 0 0 0
0 0 0 0 0 0 0 0 0 1 3 4 4 4 3 3 4 8 15 21 20 17 17 15 9 3 3 6 8 8 7 4 1 0 0 0 1 2 2 1 0 0 0 0 0 0 0 0 0
0 0 0 0 0 0 0 0 0 2 3 4 5 5 4 4 7 13 21 27 26 23 22 19 11 4 3 6 8 7 5 2 0 0 0 0 0 1 1 0 0 0 0 0 0 0 0 0 0
0 0 0 0 0 0 0 0 0 1 2 3 4 5 4 6 10 16 23 29 30 27 24 21 14 6 4 7 9 8 4 2 1 0 0 0 0 0 0 0 0 0 0 0 0 0 0 0 0
0 0 0 0 0 0 0 0 0 0 1 2 3 3 4 7 12 17 23 29 30 27 23 22 17 10 7 10 13 11 6 3 1 0 0 0 0 0 0 0 0 0 0 0 0 0 0 0 0
0 0 0 0 0 0 0 0 0 0 0 1 2 2 4 8 13 18 23 28 29 25 23 24 21 15 12 13 15 12 8 5 3 1 0 0 0 0 0 0 0 0 0 0 0 0 1 0 0
0 0 0 0 0 0 0 0 0 0 0 0 0 2 6 10 15 20 25 29 29 26 25 26 24 19 15 15 14 12 9 8 6 3 2 0 0 0 0 0 0 0 0 0 0 0 1 1 1
0 0 0 0 0 0 0 0 0 0 0 0 0 3 8 13 18 23 28 32 33 29 26 27 26 22 17 15 15 12 10 9 8 6 3 1 0 0 0 0 0 0 0 0 0 1 1 2 2
0 0 0 0 0 0 0 0 0 0 0 1 2 6 11 15 19 24 28 33 35 32 30 30 29 24 19 17 16 14 12 11 9 6 3 1 1 0 0 1 1 0 1 1 1 2 3 3 4
0 0 0 0 0 0 0 0 0 0 1 3 6 9 13 14 17 21 25 31 34 34 33 35 34 29 23 21 19 18 16 14 11 8 6 3 3 2 2 2 1 1 2 2 3 3 3 4 5
0 0 0 0 0 0 0 0 0 0 1 5 8 10 12 13 15 17 22 29 31 31 32 33 33 29 25 23 22 22 20 17 14 13 11 8 7 6 5 3 1 1 2 3 3 3 3 4 5
0 0 0 0 0 0 0 0 0 0 2 5 8 11 13 15 15 17 23 28 29 28 28 27 27 25 23 21 22 24 22 19 16 16 14 12 11 9 6 3 1 1 2 3 3 3 3 3 4
0 0 0 0 0 0 0 0 0 0 2 5 9 12 15 17 16 18 24 30 30 29 28 25 23 23 21 19 20 24 23 19 17 16 15 13 11 9 6 3 1 2 2 3 3 3 3 3 3

GEFSSGP_con_prob3kmehi_192.txt.gz
EHI
16 17 17 15 9 2 0 0 0 0 0 0 0 0 0 0 0 0 0 0 0 0 0 0 1 0 0 0 0 0 0 0 0 0 0 0 0 0 0 0 0 0 0 0 0 0 1 2 2
12 13 13 10 5 1 0 0 0 0 0 0 0 0 0 0 0 0 0 0 0 0 0 0 1 0 0 0 0 0 0 0 0 0 0 0 0 0 0 0 0 0 0 0 0 0 0 1 1
7 7 7 5 1 0 0 0 0 0 0 0 0 0 0 0 0 0 0 0 0 0 0 0 0 0 0 0 0 0 0 0 0 0 0 0 0 0 0 0 0 0 0 0 0 0 0 0 0
2 4 4 2 0 0 0 0 0 0 0 0 0 0 0 0 0 0 0 0 0 0 0 0 1 1 0 0 0 0 0 0 0 0 0 0 0 0 0 0 0 0 0 0 0 0 0 0 0
1 2 1 0 0 0 0 0 0 0 0 0 0 0 0 0 0 0 0 0 0 0 0 1 2 2 1 0 0 0 0 0 1 1 1 0 0 0 0 0 0 0 0 0 0 0 0 0 0
1 1 0 0 0 0 0 0 0 0 0 0 0 1 2 1 0 0 0 0 0 0 0 2 3 3 1 0 0 0 0 1 2 2 1 0 0 0 0 0 0 0 0 0 0 0 0 0 0
0 0 0 0 0 0 0 0 0 0 0 0 0 1 3 2 0 0 0 0 0 0 0 1 2 2 2 1 1 1 0 1 2 2 1 0 0 0 0 0 0 0 0 0 0 0 0 0 0
0 0 0 0 0 0 0 0 0 0 0 0 0 2 5 5 2 0 0 0 0 0 0 0 0 1 1 1 2 1 0 0 1 1 1 0 0 0 0 0 0 0 0 0 0 0 0 0 0
0 0 0 0 0 0 0 0 0 0 0 1 1 3 7 9 5 3 3 2 1 2 1 0 0 0 0 1 1 1 0 0 0 0 0 0 0 0 0 0 0 0 0 0 0 0 0 0 0
0 0 0 0 0 0 0 0 0 0 0 1 3 5 10 12 10 7 5 4 3 3 2 1 0 0 0 0 0 0 0 0 0 0 0 0 0 0 0 0 0 0 0 0 0 0 0 0 0
0 0 0 0 0 0 0 0 0 0 0 1 3 7 12 13 11 7 5 4 3 3 2 1 0 0 0 0 0 0 0 0 0 0 0 0 0 0 0 0 0 0 0 0 0 0 0 0 0
0 0 0 0 0 0 0 1 1 1 0 0 3 8 12 11 8 6 4 3 3 3 2 1 0 0 0 0 0 0 0 0 0 0 0 0 0 0 0 0 0 0 0 0 0 0 0 0 0
0 0 0 0 0 0 0 2 2 1 0 0 2 7 8 7 6 5 4 3 3 3 2 1 0 0 1 2 2 1 1 1 1 0 0 0 0 0 0 0 0 0 0 0 0 0 0 0 0
0 0 0 0 0 0 0 2 2 1 0 1 2 3 3 2 3 5 6 6 5 5 4 2 1 1 3 4 3 1 1 2 2 1 1 0 0 1 1 0 0 0 0 0 0 0 0 0 0
0 0 0 0 0 0 0 2 2 1 1 2 3 2 1 0 2 6 9 9 9 10 9 6 3 3 5 6 4 1 1 3 4 3 1 0 0 1 1 1 0 0 0 0 0 0 0 0 0
0 0 0 0 0 0 0 2 3 2 1 2 4 3 2 2 3 6 9 10 12 15 16 12 6 5 8 8 5 3 1 2 3 3 1 0 1 1 2 1 0 0 0 0 0 0 0 0 0
0 0 0 0 0 0 0 2 5 5 2 2 4 6 6 6 6 7 9 12 16 20 24 21 13 10 12 11 8 6 5 3 3 3 1 1 2 3 2 1 0 0 0 0 0 0 1 1 0
0 0 0 0 0 0 0 1 5 6 4 3 5 7 9 8 7 8 11 15 21 27 30 29 23 20 19 16 12 10 8 6 4 3 2 2 2 3 2 1 1 1 0 0 0 0 1 2 1
0 0 0 0 0 0 0 0 3 7 7 6 7 8 9 7 7 10 14 20 28 34 36 34 30 28 26 20 14 11 10 7 5 4 3 1 1 3 3 2 1 1 1 1 1 1 1 2 2
0 0 0 0 0 0 0 0 2 6 8 7 7 8 7 6 10 15 19 25 32 38 40 37 34 32 30 23 14 11 9 7 6 6 3 1 1 2 3 2 1 1 1 2 3 3 2 2 3
0 0 0 0 0 0 0 0 1 3 6 7 7 7 6 8 15 21 25 29 33 38 40 38 38 37 34 27 18 13 10 7 7 8 5 1 1 1 2 2 2 2 3 3 4 4 5 4 3
0 0 0 0 0 0 0 0 0 1 4 7 7 6 6 9 17 25 30 31 33 38 40 40 42 43 41 34 27 20 14 9 8 9 6 2 1 1 1 1 2 3 3 3 3 4 5 4 4
0 0 0 0 0 0 0 0 0 0 2 6 8 8 7 10 16 24 29 31 32 36 40 43 45 48 47 42 37 30 20 13 10 10 9 6 4 3 2 2 3 3 3 3 3 3 4 3 3
0 0 0 0 0 0 0 0 0 0 0 3 7 8 9 11 16 22 28 32 33 35 40 44 47 50 50 47 43 36 28 21 17 14 14 11 8 6 5 4 4 4 3 3 3 4 4 4 4
0 0 0 0 0 0 0 0 0 0 0 1 4 8 11 13 17 24 31 37 39 40 43 48 51 52 50 48 44 38 32 26 21 17 16 14 10 7 5 5 5 5 4 4 4 5 5 5 6
0 0 0 0 0 0 0 0 0 1 1 2 5 10 14 16 19 25 32 40 43 45 50 56 58 55 51 48 44 39 32 23 18 17 15 14 12 8 6 7 7 7 6 6 7 7 7 6 6
0 0 0 0 0 0 0 0 1 3 4 6 10 16 19 19 21 25 31 38 42 45 50 55 57 54 49 46 42 38 31 22 17 17 18 19 17 12 10 10 9 10 11 11 12 11 8 7 6
0 0 0 0 0 0 0 0 2 5 7 10 15 22 24 23 25 30 35 39 40 42 46 50 52 50 45 41 39 36 32 28 24 23 26 28 26 20 15 12 10 11 13 15 16 13 9 7 5
0 0 0 0 0 0 0 1 4 7 10 13 19 24 27 28 32 38 42 41 41 43 46 48 50 50 46 42 40 38 37 36 32 31 34 36 34 28 21 15 12 11 13 15 14 11 8 5 4
0 0 0 0 0 0 0 1 5 9 11 15 21 25 27 31 38 43 44 44 44 45 47 48 51 53 50 47 45 42 40 40 36 35 39 41 38 32 25 19 14 12 13 13 11 8 6 4 2

GEFSSGP_con_prob3kmehi_198.txt.gz
EHI
9 17 35 51 40 13 1 0 0 0 0 0 0 0 0 0 0 0 1 7 12 8 2 1 0 0 0 0 0 0 0 0 0 1 1 2 1 1 1 2 1 0 0 0 0 0 0 0 0
12 23 38 41 26 8 0 0 0 0 0 0 0 0 0 0 0 0 1 7 12 10 5 2 1 0 0 0 0 0 0 0 0 1 1 1 1 1 1 2 1 0 0 0 0 0 0 0 0
19 30 35 25 10 2 0 0 0 0 0 0 0 0 0 0 0 0 1 6 12 13 10 6 3 1 0 0 0 0 0 0 0 1 1 1 1 1 1 1 1 0 0 0 1 2 1 0 0
27 32 26 12 2 0 0 0 0 0 0 0 0 0 0 0 0 0 1 4 10 13 12 8 4 1 0 0 0 0 0 0 0 0 0 0 1 1 0 0 0 0 0 1 2 3 2 0 0
25 23 15 5 0 0 0 0 0 0 0 0 0 0 0 0 0 0 0 3 8 11 10 7 3 1 0 0 0 0 0 0 0 0 0 0 0 0 0 0 0 0 1 2 2 2 1 0 0
15 10 4 1 0 0 0 0 0 0 0 0 0 1 1 1 0 0 0 2 6 10 8 5 3 2 1 0 0 0 0 0 0 0 0 0 0 0 0 0 0 0 1 1 1 1 0 0 1
8 5 1 0 0 0 0 0 0 0 0 0 0 1 2 1 0 0 0 1 5 7 7 5 4 4 3 2 2 1 0 1 1 0 0 0 0 0 0 0 0 0 0 0 0 0 0 0 1
4 2 0 0 0 0 0 0 0 0 0 0 0 2 3 2 1 1 1 3 4 5 5 5 5 5 5 4 4 4 3 3 2 2 1 1 1 1 1 1 1 1 0 0 0 0 0 1 1
1 0 0 0 0 0 0 0 0 0 0 0 2 3 4 3 2 2 4 5 5 4 4 4 4 5 5 6 7 8 6 5 5 4 3 3 3 3 3 3 3 2 1 1 1 1 1 2 3
0 0 0 0 0 0 0 0 0 0 0 2 5 6 4 3 3 4 6 7 5 4 3 2 2 3 4 6 8 8 7 6 5 5 5 5 5 4 4 4 4 4 3 3 3 3 3 3 3
0 0 0 0 0 0 0 0 0 0 1 4 9 9 5 4 4 5 7 7 5 4 4 4 3 5 6 7 6 6 6 6 5 4 4 4 4 3 3 4 5 5 5 4 4 3 2 1 1
0 0 0 0 0 0 0 0 0 0 1 4 8 7 4 3 5 7 8 9 7 6 7 8 8 10 12 12 8 6 5 5 5 5 3 3 3 2 2 4 4 4 4 5 4 4 3 1 1
0 0 0 0 0 0 0 0 0 0 1 4 6 5 2 2 5 9 11 12 11 11 12 13 13 14 16 15 12 9 7 6 6 5 3 3 3 1 1 3 4 4 4 5 5 5 5 4 3
0 0 0 0 0 0 1 0 0 0 2 4 6 5 3 3 7 13 15 17 18 20 20 18 15 15 15 13 12 10 9 8 7 6 5 3 2 1 1 3 4 5 6 5 5 6 7 7 7
0 0 0 0 0 0 1 1 2 2 3 5 7 7 7 8 13 19 22 24 29 31 32 26 18 15 14 10 9 8 7 8 9 9 8 6 4 4 4 4 4 5 7 7 7 7 7 7 7
0 0 0 0 0 0 1 2 4 4 4 6 8 10 14 17 20 25 29 32 39 43 43 35 25 22 19 14 10 8 7 9 10 10 11 11 8 8 9 7 5 6 9 8 6 5 4 3 3
0 0 0 0 0 0 1 3 5 6 6 8 11 17 25 28 29 32 35 40 49 55 52 43 36 33 28 21 15 12 10 12 13 13 15 15 10 9 11 11 10 10 11 8 5 3 3 2 2
0 0 0 0 0 0 0 3 7 8 9 14 19 26 34 37 38 39 41 46 56 64 61 51 45 41 34 27 23 19 17 17 18 21 24 21 14 11 12 13 14 14 11 8 6 5 3 3 4
0 0 0 0 0 0 0 2 7 10 12 19 27 33 38 42 45 47 48 50 60 70 70 59 51 45 39 33 31 29 25 23 24 28 31 27 19 14 13 12 13 13 10 8 7 7 6 5 5
0 0 0 0 0 0 0 1 4 8 12 18 27 34 39 44 52 57 55 57 67 77 76 66 57 51 44 38 37 35 30 26 27 33 35 29 20 14 11 11 10 9 11 11 11 10 9 8 6
0 0 0 0 0 0 0 0 2 6 9 14 21 29 36 45 57 64 63 63 73 81 80 72 67 60 50 43 39 38 36 31 32 38 40 32 22 15 12 12 11 10 12 14 14 13 12 11 9
0 0 0 0 0 0 0 0 1 4 7 10 16 23 31 43 57 67 68 67 72 79 81 81 78 70 58 48 42 42 43 39 39 44 45 39 30 22 19 19 19 15 12 12 12 12 12 11 9
0 0 0 0 0 0 0 0 1 3 5 8 12 17 25 36 51 65 71 70 69 76 83 85 83 77 67 55 47 45 45 43 43 47 48 45 41 33 28 28 27 21 15 13 13 11 11 10 9
0 0 0 0 0 0 0 0 0 1 3 6 9 14 20 30 44 60 71 73 72 77 84 86 84 81 73 62 53 49 45 42 44 48 49 47 45 42 37 34 32 26 20 18 18 15 12 10 10
0 0 0 0 0 0 0 0 0 0 1 4 7 13 21 28 38 54 69 77 79 83 88 89 87 83 75 66 60 55 50 45 45 45 46 45 44 44 44 41 39 33 26 23 22 20 15 13 12
0 0 0 0 0 0 0 0 1 1 2 4 7 13 21 29 36 48 63 76 83 87 91 92 90 84 76 70 67 63 58 50 45 44 44 44 43 44 48 50 47 41 32 27 26 23 19 17 18
0 0 0 0 0 0 0 1 3 3 3 5 8 13 21 28 35 45 57 71 82 88 92 94 92 87 81 76 73 70 65 54 45 44 45 44 45 48 53 54 51 46 39 33 29 25 22 22 23
0 0 0 0 0 0 1 3 6 7 5 5 9 15 23 30 36 44 52 65 78 85 90 92 93 90 86 81 76 72 68 59 49 46 45 46 50 54 56 54 50 47 43 38 32 27 24 24 24
0 0 0 0 0 0 1 4 7 9 8 7 10 18 26 32 38 44 52 63 73 81 86 91 92 90 88 85 79 75 72 67 59 53 50 50 54 57 57 55 51 46 42 39 35 29 24 23 24
0 0 0 0 0 0 1 3 6 9 10 10 13 20 29 34 39 45 55 64 71 78 85 91 92 90 89 87 83 80 78 74 66 59 55 54 55 56 57 57 53 45 40 39 37 30 21 20 23

GEFSSGP_con_prob3kmehi_204.txt.gz
EHI
8 3 0 0 0 0 0 0 0 0 0 0 0 0 0 0 0 0 0 1 2 1 1 2 3 2 2 2 1 0 1 2 3 2 2 3 3 2 1 0 0 0 0 0 0 0 0 1 1
4 2 1 0 0 0 0 0 0 0 0 0 0 0 0 1 1 1 0 1 2 2 1 2 4 3 1 1 0 0 0 1 2 1 1 1 1 1 0 0 0 0 0 0 0 0 0 0 1
3 3 2 1 1 0 0 0 0 0 0 0 0 0 0 1 2 3 2 3 3 2 1 3 5 4 1 0 0 0 0 0 0 0 0 0 0 1 1 0 0 0 0 0 0 0 0 0 0
5 4 3 3 2 0 0 0 0 0 0 0 0 0 0 2 4 5 4 3 4 3 2 4 6 5 2 1 0 0 0 0 0 0 1 0 1 2 2 1 0 0 0 1 0 0 0 0 0
4 3 3 3 1 0 0 0 1 1 1 0 0 0 1 3 7 7 4 2 3 3 2 3 5 5 3 1 0 0 0 0 1 1 1 0 1 3 3 1 0 0 0 0 0 0 0 0 0
4 3 2 1 0 0 0 1 2 2 1 0 0 0 1 5 8 8 4 1 1 2 1 1 3 3 1 1 0 0 0 0 1 2 1 1 1 2 3 1 0 0 0 0 0 0 0 0 0
4 3 1 0 0 0 1 2 3 2 1 0 0 0 1 5 6 6 3 1 0 0 0 0 1 1 0 0 0 0 0 0 1 2 2 2 1 1 1 0 0 0 0 0 0 0 0 0 0
2 1 0 0 0 0 0 1 3 3 2 1 0 0 2 5 6 5 3 1 0 0 0 0 0 0 0 0 1 0 0 0 0 1 3 2 1 0 0 0 1 1 0 0 0 0 0 0 1
1 0 0 0 0 0 0 2 3 4 4 2 0 0 3 7 9 8 6 3 0 0 0 0 0 0 0 0 1 1 0 0 0 1 2 2 1 0 0 0 1 2 1 0 0 1 1 1 1
0 0 0 0 0 0 1 3 4 5 5 3 1 1 3 7 11 11 9 6 2 0 0 0 0 0 0 1 2 2 1 0 0 0 1 1 0 0 0 0 1 2 1 0 0 2 2 1 1
0 0 0 0 0 0 1 3 4 5 5 3 2 1 3 6 10 12 10 7 5 2 1 1 1 1 1 1 3 3 1 0 0 0 0 0 0 0 0 0 0 1 1 0 0 1 1 0 0
0 0 0 0 0 0 0 1 3 4 3 3 3 2 3 4 7 8 8 8 7 5 3 2 2 2 2 2 2 3 2 1 1 0 0 0 0 0 0 0 0 0 0 0 0 0 0 0 0
0 0 0 0 0 0 0 1 3 3 3 4 2 1 3 5 6 6 8 11 11 8 5 4 3 3 3 2 1 2 3 2 1 0 0 0 0 0 0 0 0 0 0 0 0 0 0 0 0
0 0 0 0 0 0 0 2 3 4 4 3 1 2 5 8 9 11 13 14 13 11 8 7 6 4 3 2 1 1 2 2 1 0 0 0 0 0 0 0 0 0 0 0 0 0 0 0 0
0 0 0 0 0 0 0 1 4 6 4 1 1 4 7 9 11 14 16 15 14 14 14 13 9 6 4 3 1 0 1 1 0 0 0 0 0 0 0 0 0 0 0 0 0 0 0 0 0
0 0 0 0 0 0 0 1 4 6 4 1 3 6 8 10 11 13 15 17 17 18 19 17 13 9 7 5 3 1 1 2 1 0 1 1 1 0 0 0 0 0 0 0 0 0 0 0 0
0 0 0 0 0 0 1 2 4 6 4 2 3 8 11 11 11 13 17 21 23 23 22 19 15 12 10 7 5 3 3 3 2 1 2 2 2 1 0 0 0 0 0 0 0 0 0 0 0
0 0 0 0 0 1 2 3 5 5 4 2 4 9 14 14 13 17 23 27 28 26 23 20 18 14 12 10 8 6 5 4 2 1 2 3 2 1 0 0 0 0 0 0 0 0 0 0 0
0 0 0 0 0 1 2 4 5 4 4 4 6 11 15 15 18 25 31 36 36 31 27 24 20 16 14 13 11 8 5 3 2 1 1 2 2 1 0 0 0 0 0 0 0 0 0 0 0
0 0 0 0 0 0 2 3 3 3 4 5 9 14 17 19 25 34 43 49 49 41 34 30 24 19 16 14 12 8 5 2 1 1 1 1 2 2 1 0 0 0 0 0 0 0 0 0 0
0 0 0 0 0 0 1 2 1 2 4 7 12 17 22 26 32 41 52 60 59 51 43 38 33 26 20 15 12 9 7 5 4 3 2 1 2 3 2 1 0 0 0 0 0 0 0 0 0
0 0 0 0 0 0 1 1 1 1 4 8 15 22 27 30 35 43 54 62 62 58 53 49 42 33 26 20 15 12 11 9 7 5 3 2 2 3 3 2 1 1 1 0 0 0 0 0 0
0 0 0 0 0 0 0 0 1 3 5 8 16 23 27 30 35 42 51 58 60 61 60 55 48 40 31 26 21 17 14 11 9 8 7 5 4 5 5 3 2 3 3 1 1 0 0 0 0
0 0 0 0 0 0 0 0 1 4 5 8 16 22 23 27 33 40 46 52 57 61 63 62 57 47 38 33 28 22 18 15 14 15 14 12 9 8 8 6 5 5 5 4 2 1 0 0 0
0 0 0 0 0 0 0 0 1 3 4 7 15 21 21 24 31 37 43 51 58 63 66 67 65 57 48 42 35 28 23 20 20 21 22 19 14 10 8 7 6 6 6 5 3 2 1 1 1
0 0 0 0 0 0 0 1 2 3 5 9 17 24 25 28 34 39 44 52 62 69 71 71 69 64 58 53 44 35 29 25 23 25 24 21 17 12 10 9 8 9 9 7 6 4 3 3 4
0 0 0 0 0 0 0 2 3 5 7 13 21 28 29 32 38 42 46 52 62 73 76 73 69 66 63 59 50 40 33 27 25 25 23 20 17 15 14 13 13 14 14 12 10 7 5 4 5
0 0 0 0 0 0 0 1 3 6 10 17 26 32 31 32 37 44 48 52 59 67 74 73 67 64 62 57 49 40 34 30 28 27 24 20 18 18 18 18 18 18 18 16 12 8 6 5 4
0 0 0 0 0 0 0 1 3 7 12 19 29 34 34 34 36 42 48 52 55 61 66 66 64 62 61 56 48 41 36 32 31 29 27 24 22 21 21 19 18 17 17 16 12 8 6 5 2
0 0 0 0 0 0 0 0 3 8 13 21 30 34 36 37 36 39 45 50 55 59 61 61 61 64 63 57 50 43 38 34 31 29 29 28 25 23 22 20 16 14 15 16 13 8 6 4 2

GEFSSGP_con_prob3kmehi_210.txt.gz
EHI
8 4 1 0 0 0 0 0 0 0 0 0 0 0 0 0 0 0 0 0 0 1 3 3 4 6 5 4 5 4 5 6 6 5 5 4 3 2 1 1 0 0 0 1 1 1 0 1 1
4 2 0 0 0 0 0 0 0 0 0 0 0 0 0 0 0 0 0 0 1 2 3 4 5 6 5 4 4 4 3 4 4 4 3 3 2 2 2 2 1 0 0 0 0 0 1 2 2
1 0 0 0 0 0 0 0 0 0 0 0 0 0 0 0 0 0 0 1 2 2 2 4 5 6 5 4 4 3 2 2 2 2 1 1 1 1 2 2 1 0 0 0 0 0 1 2 3
0 0 0 0 0 0 0 0 0 0 0 0 0 0 0 0 0 0 0 2 2 1 1 2 4 4 3 3 2 2 2 1 1 1 0 0 0 1 2 3 1 0 0 0 0 0 0 1 2
0 0 0 0 0 0 0 0 0 0 0 0 0 0 0 0 0 0 0 1 1 1 0 1 2 3 3 1 1 1 1 0 0 0 0 0 0 0 1 3 2 0 0 0 0 0 0 0 1
0 0 0 0 0 0 0 0 1 1 0 0 0 0 0 0 0 0 0 0 0 0 0 0 1 3 3 1 0 0 0 0 0 0 0 0 0 0 0 1 1 0 0 0 0 0 0 0 0
0 0 0 0 0 0 0 0 1 1 0 0 0 0 0 0 0 0 0 0 0 0 0 0 1 2 2 1 0 0 0 0 0 0 0 0 0 0 0 0 0 0 0 0 0 0 0 0 0
0 0 0 0 0 0 0 0 0 0 0 0 0 0 0 1 1 1 0 0 0 0 0 0 0 1 1 1 0 0 0 0 0 0 1 0 0 0 0 0 0 0 0 0 0 0 0 0 0
0 0 0 0 0 0 0 0 0 0 0 0 0 0 1 2 2 2 1 0 0 0 0 0 0 0 0 0 0 0 0 0 0 1 2 1 0 0 0 0 0 0 1 1 0 0 0 0 0
0 0 0 0 0 0 0 0 1 0 0 0 1 2 3 3 3 2 1 0 0 0 0 0 0 0 0 0 1 0 0 0 0 0 1 0 0 0 0 0 0 0 1 1 0 0 0 0 0
0 0 0 0 0 0 0 0 0 0 0 1 3 4 4 4 3 2 1 0 0 0 0 0 0 0 0 0 0 0 0 0 0 0 0 0 0 0 0 0 0 0 1 1 0 0 0 0 0
0 0 0 0 0 0 1 1 0 0 0 2 5 5 4 3 2 1 0 0 0 0 0 0 0 0 0 0 0 0 0 0 0 0 0 0 0 0 0 0 0 0 0 0 0 0 0 0 0
0 0 0 0 0 1 2 2 1 0 1 4 6 5 3 3 1 0 0 0 0 0 0 0 0 0 0 0 0 0 0 0 0 0 0 0 0 0 0 0 0 0 0 0 0 0 0 0 0
0 0 0 0 0 1 2 2 1 1 3 6 6 4 3 2 1 0 0 0 0 0 0 1 1 0 0 0 0 0 0 0 0 0 0 0 0 0 0 0 0 0 0 0 0 0 0 0 0
0 0 0 0 0 0 1 1 1 1 4 5 4 3 2 1 0 0 0 0 0 0 1 2 1 0 0 0 0 0 0 0 0 0 0 0 0 0 0 0 0 0 0 0 0 0 0 0 0
0 0 0 0 0 0 0 0 0 1 3 4 4 3 2 0 0 0 0 0 0 0 1 2 2 1 1 0 0 0 0 0 0 0 0 0 0 0 0 0 0 0 0 0 0 0 0 0 0
0 0 0 0 0 0 0 0 0 1 2 4 5 5 3 1 0 0 0 1 2 2 2 2 2 2 1 0 0 0 0 0 0 0 0 0 0 0 0 0 0 0 0 0 0 0 0 0 0
0 0 0 0 0 0 0 0 0 0 1 3 5 5 3 1 0 0 1 3 4 3 2 2 1 1 1 0 0 0 0 0 0 0 0 0 0 0 0 0 0 0 0 0 0 0 0 0 0
0 0 0 0 0 0 0 0 0 0 0 2 4 5 4 3 1 1 3 5 6 5 3 2 1 1 1 1 0 0 0 0 0 0 0 0 1 1 0 0 0 0 0 0 0 0 0 0 0
0 0 0 0 0 0 0 0 0 0 0 1 3 4 5 5 3 2 4 7 8 7 6 4 2 3 3 3 2 1 0 0 0 0 0 1 2 2 1 0 0 0 0 0 0 0 0 0 0
0 0 0 0 0 0 0 0 0 0 0 0 2 4 6 6 5 4 5 7 8 8 8 7 5 6 7 7 7 4 2 2 2 1 1 1 2 3 2 1 0 0 0 0 0 0 0 0 0
0 0 0 0 0 0 0 0 0 0 0 0 1 3 5 7 6 6 6 7 8 10 10 10 10 9 8 9 10 9 6 5 4 4 2 2 3 3 3 1 1 2 1 0 0 0 0 0 0
0 0 0 0 0 0 0 0 0 0 0 0 0 2 5 7 7 7 9 8 10 13 14 14 14 11 8 8 11 11 8 6 5 4 4 4 5 4 4 3 3 3 2 1 0 0 0 0 0
0 0 0 0 0 0 0 0 0 0 0 0 1 3 6 8 9 10 12 13 15 17 18 17 15 10 7 8 10 10 9 7 6 4 4 5 6 6 6 6 6 5 4 2 1 0 0 0 0
0 0 0 0 0 0 0 0 0 0 0 1 3 4 7 10 12 14 18 20 23 24 23 20 16 12 10 10 9 9 9 8 6 4 4 5 6 7 8 9 8 7 6 4 1 0 0 0 0
0 0 0 0 0 0 0 0 0 0 0 1 3 6 8 12 15 18 22 26 30 32 30 27 22 19 17 14 10 10 11 10 8 5 5 5 6 7 9 10 9 7 6 4 1 0 0 0 0
0 0 0 0 0 0 0 0 0 0 0 1 4 8 11 14 17 21 25 30 35 37 37 34 30 27 23 20 15 12 13 14 12 10 9 8 7 8 10 11 10 8 6 4 2 1 0 0 1
0 0 0 0 0 0 0 0 0 0 0 0 4 9 11 13 18 23 27 32 36 38 40 38 35 31 27 25 23 19 17 18 17 16 14 11 10 11 13 13 12 10 7 5 4 3 2 2 3
0 0 0 0 0 0 0 0 0 0 0 0 3 8 11 13 18 21 25 32 35 38 40 40 36 33 30 29 30 27 24 24 22 20 19 17 15 15 15 14 14 12 10 6 4 4 4 5 5
0 0 0 0 0 0 0 0 0 0 0 1 2 7 11 14 17 20 23 30 36 38 40 40 37 34 32 31 32 31 28 27 27 24 22 22 19 15 14 15 14 13 11 7 4 4 6 6 6

GEFSSGP_con_prob3kmehi_216.txt.gz
EHI
12 11 11 14 10 3 0 0 0 0 0 0 0 0 0 0 0 0 0 0 0 1 2 3 1 0 0 0 0 0 0 0 0 0 1 2 2 1 0 1 1 1 0 0 0 0 0 0 0
9 9 11 12 6 1 0 0 0 0 0 0 0 0 0 0 0 0 0 0 0 1 2 3 2 1 0 0 0 0 0 0 0 0 0 1 2 1 0 0 0 0 0 0 0 0 0 0 0
6 8 10 7 2 0 0 0 0 0 0 0 0 0 0 0 0 0 0 0 0 0 1 3 2 1 0 0 0 0 0 0 0 0 0 1 1 1 0 0 0 0 0 0 0 0 0 0 0
5 8 8 4 0 0 0 0 0 0 0 0 0 0 0 0 0 0 0 0 0 0 1 2 2 1 0 0 0 0 1 0 0 0 0 0 0 0 0 0 0 0 0 0 0 0 0 0 0
4 6 6 2 0 0 0 0 0 0 0 0 0 0 1 1 0 0 0 0 0 0 1 2 1 0 0 0 1 1 1 0 0 0 0 0 0 0 0 0 0 0 0 0 0 0 0 0 0
2 2 1 1 0 0 0 0 0 0 1 1 0 1 2 2 1 0 0 0 0 0 1 1 1 0 0 0 1 2 1 0 0 0 0 0 1 1 1 0 0 0 0 0 0 0 0 0 0
1 0 0 0 0 0 0 0 0 1 2 2 1 1 4 4 2 1 0 0 0 0 0 0 0 0 0 0 1 2 2 1 0 0 0 1 2 2 1 0 0 0 0 0 0 0 0 0 0
0 0 0 0 0 0 0 0 0 1 2 2 1 2 5 5 4 2 1 0 0 0 0 0 0 0 0 0 1 2 2 1 0 0 0 1 2 2 1 0 0 0 0 0 0 0 0 0 0
0 0 0 0 0 0 0 1 1 2 3 2 1 2 5 6 4 3 2 1 0 0 0 0 0 0 0 0 1 2 2 1 0 0 1 1 1 1 0 0 0 0 0 0 0 0 0 0 0
0 0 0 0 0 0 0 1 2 2 3 3 2 3 5 5 4 3 3 2 0 0 0 0 0 0 0 0 1 2 3 2 1 1 2 2 1 2 1 1 0 0 0 0 0 0 0 0 0
0 0 0 0 0 0 0 0 1 1 2 2 3 5 6 5 4 3 3 2 0 0 0 0 0 1 1 0 1 2 3 3 2 1 1 1 2 3 3 2 1 0 0 0 0 0 0 0 0
0 0 0 0 0 0 0 0 0 1 1 2 4 6 6 4 3 3 3 2 1 0 0 0 1 2 2 1 0 1 1 2 2 1 0 0 1 2 2 2 1 0 0 0 0 0 0 0 0
0 0 0 0 0 0 0 0 0 1 1 2 4 5 5 4 3 3 3 2 1 0 0 1 1 3 3 2 1 0 0 1 1 0 0 0 0 1 1 1 0 0 0 0 0 0 0 0 0
0 0 0 0 0 0 0 0 0 0 1 2 3 4 3 3 3 4 4 2 1 0 1 2 3 3 3 3 2 1 0 0 0 0 0 0 0 0 0 0 0 0 0 0 0 0 0 0 0
0 0 0 0 0 0 0 0 0 0 0 2 3 3 3 2 2 3 4 3 1 0 1 2 3 3 3 3 2 1 0 0 0 0 0 0 0 0 0 0 0 0 0 0 0 0 0 0 0
0 0 0 0 0 0 0 1 1 1 1 2 3 3 3 3 2 2 3 4 3 1 2 3 3 3 3 3 2 1 0 0 0 0 0 0 0 0 0 0 0 0 0 0 0 0 0 0 0
0 0 0 0 0 0 0 1 2 2 1 2 3 4 5 6 5 3 4 5 5 4 3 4 3 3 3 3 1 1 1 0 0 0 0 0 0 0 0 0 0 1 1 0 0 0 0 0 0
0 0 0 0 0 0 0 0 1 2 2 3 5 7 8 8 7 6 5 5 6 5 6 7 6 5 4 3 1 0 0 0 0 0 0 0 1 1 1 0 1 2 2 1 1 1 1 1 1
0 0 0 0 0 0 0 0 1 3 4 5 9 12 11 9 8 8 6 5 6 7 9 10 10 9 8 6 3 0 0 0 0 0 0 2 3 4 4 3 3 4 3 2 2 2 1 1 0
0 0 0 0 0 0 0 0 1 2 4 6 10 12 13 10 10 11 9 7 7 9 11 13 15 15 14 11 6 3 2 2 2 2 2 4 6 6 7 7 6 6 5 3 4 4 3 1 1
0 0 0 0 0 0 0 0 0 1 2 5 8 11 13 13 13 16 15 11 9 11 13 15 20 23 21 16 10 7 7 6 5 5 5 5 6 8 9 9 9 8 7 5 5 6 4 3 3
0 0 0 0 0 0 0 0 0 1 2 5 8 12 14 14 16 19 19 14 11 12 14 19 27 31 28 22 15 11 9 6 5 5 4 4 5 8 9 10 10 9 8 7 7 7 6 5 5
0 0 0 0 0 0 0 0 0 1 2 5 8 12 15 16 17 18 18 16 13 12 14 22 32 37 35 29 21 15 10 6 5 5 5 5 6 8 10 10 10 11 11 10 10 10 10 8 7
0 0 0 0 0 0 0 0 0 0 1 2 6 10 13 15 17 18 19 19 17 16 18 26 36 41 39 32 23 17 13 10 9 8 8 8 9 12 13 12 12 13 14 15 15 15 15 13 11
0 0 0 0 0 0 0 0 1 1 0 2 7 10 11 12 16 20 25 26 26 26 28 33 40 43 39 31 25 21 18 15 13 12 11 10 11 14 16 15 16 18 19 21 22 21 19 17 16
0 0 0 0 0 0 0 1 1 1 2 5 10 12 12 12 14 19 26 29 31 33 35 38 42 42 37 30 27 26 23 18 14 14 13 11 11 13 17 19 21 23 23 25 28 27 23 20 19
0 0 0 0 0 0 0 1 1 1 4 10 14 15 15 14 14 16 22 27 29 31 34 36 40 40 36 31 29 28 25 22 18 19 19 17 15 16 18 21 23 24 25 27 30 30 25 20 19
0 0 0 0 0 0 0 0 1 3 7 13 16 15 15 15 15 15 20 26 28 29 30 33 38 39 35 32 29 25 24 24 24 26 27 27 25 25 25 24 24 25 27 28 30 28 22 18 17
0 0 0 0 0 0 0 1 3 6 9 13 17 15 14 16 17 18 22 27 30 32 33 36 38 39 37 35 32 27 24 25 28 33 35 35 35 34 31 28 26 27 28 29 30 25 19 17 16
0 0 0 0 0 0 0 2 6 9 11 14 17 16 16 19 21 22 24 28 33 37 40 40 40 40 39 38 36 32 28 26 31 36 39 40 39 36 33 31 29 27 26 29 29 24 19 16 15

GEFSSGP_con_prob3kmehi_222.txt.gz
EHI
14 15 27 47 48 23 4 0 0 0 0 0 0 0 0 0 0 0 1 3 4 3 3 3 4 4 3 3 2 1 0 0 1 1 1 0 1 2 3 2 1 1 1 1 2 3 5 6 5
14 24 39 48 35 13 2 0 0 0 0 0 0 0 0 0 0 0 2 3 4 4 3 4 5 4 3 2 1 0 0 0 0 0 0 0 0 1 2 2 1 0 0 0 1 3 4 5 5
20 34 47 39 19 4 0 0 0 0 0 0 0 0 0 0 0 0 1 3 5 4 4 6 6 4 2 1 0 0 0 0 0 0 0 0 0 0 1 1 0 0 0 0 1 3 4 4 4
30 39 39 25 9 1 0 0 0 0 0 0 1 1 1 0 0 0 1 3 4 4 5 7 6 4 1 0 0 0 0 0 0 0 0 0 0 0 0 0 0 0 0 1 2 3 3 3 2
37 35 27 13 3 0 0 0 0 0 0 1 1 2 2 1 1 1 1 2 3 4 5 5 5 3 1 0 1 1 1 0 0 0 0 0 0 0 0 0 0 0 0 2 2 2 1 1 1
34 26 15 6 1 0 0 0 0 0 0 0 2 4 4 3 2 1 0 1 3 4 4 5 5 3 1 0 0 1 1 0 0 0 0 0 1 0 0 0 0 0 0 1 2 1 0 0 0
23 15 6 2 0 0 0 0 0 0 0 0 2 6 9 6 2 0 0 1 2 4 5 5 5 4 1 0 0 1 1 0 0 0 0 0 0 0 0 0 1 1 1 1 1 1 0 0 0
9 5 1 0 0 0 0 0 0 0 0 0 3 8 11 8 2 0 1 1 3 3 4 5 6 4 1 1 2 2 1 0 0 1 1 1 1 1 0 0 1 2 2 2 1 0 0 0 0
1 0 0 0 0 0 0 0 0 0 1 2 5 10 12 8 3 1 2 3 3 3 3 4 5 3 2 2 5 5 3 2 2 3 4 4 3 2 1 1 2 3 3 2 1 0 0 0 0
0 0 0 0 0 0 0 0 0 0 3 6 9 11 11 8 5 4 4 4 3 3 3 3 4 4 4 5 7 7 6 6 5 4 4 3 3 2 1 1 3 3 3 3 1 1 0 0 0
0 0 0 0 0 0 0 0 0 0 3 8 11 10 8 7 6 6 7 6 5 5 4 3 4 6 7 8 7 7 8 9 7 6 4 2 1 2 2 2 3 3 3 3 3 2 2 2 1
0 0 0 0 0 0 0 0 0 0 2 7 10 8 5 5 6 8 10 10 10 9 8 6 7 9 11 11 9 7 8 7 6 7 5 2 0 1 2 3 3 2 3 3 3 3 3 3 2
0 0 0 0 0 0 0 0 0 1 3 6 8 5 4 4 7 11 13 14 15 16 14 12 13 14 15 14 11 8 7 6 5 6 5 2 1 1 2 2 2 2 2 4 4 3 3 3 3
0 0 0 0 0 0 0 0 0 2 5 6 6 4 3 5 9 14 18 19 20 21 21 18 16 17 15 12 10 8 7 7 6 7 6 4 3 3 4 3 2 3 4 5 4 3 3 3 3
0 0 0 0 0 0 0 0 1 3 5 6 5 4 3 5 9 15 20 24 25 28 28 23 16 15 14 10 8 7 7 9 9 10 10 7 5 5 4 3 3 4 5 6 5 3 3 2 2
0 0 0 0 0 0 0 1 2 4 6 5 4 5 6 7 10 14 20 27 33 37 37 28 19 18 16 12 9 7 7 9 11 13 14 11 7 5 5 4 4 4 6 6 5 3 4 4 3
0 0 0 0 0 0 0 1 4 5 6 7 7 9 12 13 13 16 22 31 40 46 44 34 26 24 19 14 12 10 8 8 9 11 15 14 9 6 5 6 7 6 6 7 6 5 7 7 6
0 0 0 0 0 0 0 1 4 7 9 12 14 18 21 21 20 22 27 36 45 51 49 41 34 30 24 18 16 14 10 7 7 10 16 18 13 9 7 9 11 10 9 9 8 8 10 8 7
0 0 0 0 0 0 0 1 4 9 12 15 20 25 29 30 32 36 37 41 50 57 56 49 41 36 29 23 19 17 14 9 8 13 21 23 17 13 11 12 14 14 12 10 8 8 9 8 6
0 0 0 0 0 0 0 0 3 8 12 15 21 28 33 37 46 54 52 49 58 67 65 57 49 44 35 26 19 18 17 14 13 19 27 28 21 15 14 14 13 14 15 13 9 8 8 7 7
0 0 0 0 0 0 0 0 1 5 10 15 19 27 35 42 54 63 62 60 66 73 70 63 60 55 43 32 22 19 22 23 25 30 34 32 25 19 17 15 13 13 17 17 13 10 8 8 9
0 0 0 0 0 0 0 0 0 2 7 12 17 25 34 43 54 63 65 64 67 71 70 68 68 63 52 40 30 25 26 29 35 40 39 34 28 23 21 18 14 14 16 18 17 14 12 11 11
0 0 0 1 1 1 0 0 0 1 4 8 12 21 32 40 49 59 65 66 66 67 68 71 72 67 58 46 36 30 27 28 35 40 39 35 30 26 25 23 19 15 15 15 17 18 17 16 16
0 0 1 2 2 1 0 0 1 2 4 5 8 15 27 36 44 56 66 69 68 66 67 73 75 69 60 50 41 35 29 30 35 38 37 33 31 30 31 30 26 21 18 16 18 22 24 24 24
0 0 1 1 1 0 0 1 4 7 9 10 11 14 23 33 43 54 65 71 71 68 70 76 77 72 64 55 48 42 36 34 37 39 37 32 31 33 39 41 39 34 28 25 26 29 30 30 29
0 0 0 0 0 0 1 4 9 13 15 17 17 17 21 30 39 49 61 68 69 70 74 79 80 75 68 59 52 48 44 37 36 38 36 32 28 33 45 53 51 45 38 35 35 34 33 33 33
0 0 0 0 0 0 2 7 12 16 17 18 18 18 20 25 33 42 54 62 64 68 74 79 82 79 72 65 58 53 49 43 37 36 35 32 28 33 48 58 56 50 42 39 39 37 35 37 38
0 0 0 0 0 0 2 6 12 16 17 15 14 16 19 23 29 37 45 52 56 61 68 76 82 80 75 71 65 59 55 50 43 39 37 35 32 37 48 56 54 50 46 42 38 36 36 39 42
0 0 0 0 0 0 1 6 12 15 14 12 13 16 19 22 27 34 40 45 50 54 61 72 80 80 76 75 72 69 66 62 55 48 44 43 43 46 50 53 51 51 51 48 40 35 35 38 40
0 0 0 0 0 0 1 6 12 13 11 11 13 17 19 21 26 34 39 43 47 52 60 70 79 80 77 76 77 77 76 72 65 56 51 50 52 53 53 50 50 52 53 50 43 36 34 36 36

GEFSSGP_con_prob3kmehi_228.txt.gz
EHI
13 7 2 1 1 0 0 0 0 0 0 0 0 0 0 0 0 0 0 1 2 3 4 5 6 7 8 9 10 8 6 6 4 4 5 5 4 3 2 1 2 2 1 0 0 0 0 0 0
7 6 4 3 1 0 0 0 0 0 0 0 0 0 0 0 1 1 0 1 3 3 3 4 5 6 7 8 8 6 4 4 4 3 4 4 3 3 1 1 2 2 1 0 0 0 0 0 1
3 4 5 5 3 1 0 1 1 1 1 1 0 0 0 1 2 2 2 2 3 3 3 5 6 6 6 6 6 5 3 3 4 3 3 3 2 2 1 0 1 2 1 1 1 0 0 1 2
4 5 6 5 3 1 1 1 2 2 2 2 1 0 0 1 2 3 2 2 3 3 4 5 6 6 5 4 4 4 3 4 3 2 2 1 1 1 0 0 1 1 0 1 1 1 1 1 2
7 8 7 3 1 1 1 2 2 2 3 3 2 1 0 1 3 3 1 1 1 2 3 5 6 6 4 3 2 2 3 2 1 1 1 0 0 0 0 0 0 0 0 0 1 1 1 2 3
12 11 7 2 0 0 1 2 3 2 4 5 4 1 0 1 4 3 1 0 0 1 1 3 5 5 3 1 1 1 1 1 0 0 0 0 0 0 0 0 0 0 0 0 0 0 1 2 2
13 10 5 2 0 0 0 2 3 4 5 6 4 1 0 2 4 4 2 1 1 1 0 1 3 3 2 1 0 0 1 1 0 0 0 0 0 0 0 0 0 0 0 0 0 0 0 1 1
9 7 4 1 0 0 0 2 4 5 6 5 2 1 1 2 3 3 3 3 2 2 1 0 1 1 1 0 0 0 2 2 1 1 1 0 0 0 0 0 0 0 0 0 0 0 0 0 0
4 4 3 1 0 0 0 2 5 8 8 6 3 2 3 4 4 4 4 3 3 2 1 0 0 0 0 0 0 0 1 3 2 2 2 1 0 0 0 0 0 0 0 0 0 0 0 0 0
1 2 1 0 0 0 1 3 6 10 11 10 8 7 6 5 4 4 4 4 3 3 1 0 0 0 0 0 0 0 0 1 1 1 1 1 0 0 0 0 0 0 0 0 0 0 0 0 0
0 0 0 0 0 0 1 4 6 9 11 13 13 10 6 5 4 4 4 4 3 3 2 0 0 0 0 0 0 0 0 0 0 0 0 0 0 0 0 0 0 0 0 0 0 0 0 0 0
0 0 0 0 0 0 1 4 7 7 10 15 16 10 5 4 4 3 4 5 5 4 2 0 0 0 0 0 0 0 0 0 0 0 0 0 0 0 0 0 0 0 0 0 0 0 0 0 0
0 0 0 0 0 0 2 4 6 7 10 16 17 11 6 4 4 5 7 8 8 6 3 1 1 0 0 0 0 0 0 0 0 0 0 1 1 0 0 0 0 0 0 0 0 0 0 0 0
0 0 0 0 0 1 3 4 5 6 10 15 16 13 9 8 8 10 11 11 10 8 5 4 3 2 0 0 0 0 0 0 0 0 1 2 2 1 0 0 0 0 0 0 0 0 0 0 0
0 0 0 0 0 1 2 3 4 5 8 12 13 12 11 11 13 16 15 13 11 9 7 7 8 5 1 0 0 0 0 0 0 1 2 3 3 2 2 1 0 0 0 0 0 0 0 0 0
0 0 0 0 0 0 0 2 4 5 6 8 7 7 10 12 15 18 18 15 12 10 9 10 11 7 2 0 0 0 0 0 0 1 2 3 4 4 4 3 1 1 1 1 1 0 0 0 0
0 0 0 0 0 0 0 3 6 7 7 7 6 7 10 12 15 19 19 17 15 12 10 11 12 8 2 0 0 0 0 0 0 0 1 3 5 6 6 4 3 2 2 2 2 1 0 0 0
0 0 0 0 1 2 2 4 7 9 9 8 8 9 10 12 15 19 21 20 20 18 15 14 14 9 3 1 1 0 0 1 1 0 1 3 5 6 6 4 3 3 3 3 3 2 1 1 0
0 0 0 1 2 3 3 4 7 9 11 10 9 11 12 13 18 22 25 26 28 27 23 20 19 13 7 4 2 1 0 1 2 1 1 3 5 6 7 5 4 2 1 2 3 3 2 1 1
0 0 0 1 2 3 3 4 6 9 11 10 9 11 14 18 23 28 32 35 36 35 30 26 23 19 13 7 3 1 0 1 2 2 2 4 6 7 8 8 5 2 1 1 1 2 3 2 1
0 0 0 0 1 1 2 3 4 8 11 11 10 10 14 20 25 31 38 41 40 38 35 31 27 23 19 13 8 6 4 3 3 3 4 6 8 10 10 9 7 3 1 0 0 1 3 2 1
0 0 0 0 0 0 1 1 3 6 10 12 12 10 12 17 23 32 40 44 43 40 37 34 31 27 24 20 17 15 12 9 6 4 5 7 9 11 11 10 8 6 3 2 1 1 2 3 4
0 0 0 0 0 0 0 0 2 5 9 12 14 12 12 16 23 31 39 44 43 41 39 37 35 32 28 25 23 21 18 14 11 7 7 8 9 11 11 11 10 9 7 6 4 3 3 4 5
0 0 0 0 0 0 0 1 2 4 7 12 16 16 15 19 25 30 36 42 42 42 43 43 40 37 32 28 24 21 20 17 15 13 10 9 8 8 9 10 11 10 10 9 9 7 5 5 6
0 0 0 0 0 0 1 2 2 3 6 12 17 19 18 20 23 26 33 40 43 44 48 51 49 43 38 33 26 22 21 19 17 16 14 11 8 6 8 11 12 11 11 11 10 10 8 7 7
0 0 0 0 0 0 1 2 3 3 5 11 16 19 19 18 19 21 27 35 42 46 52 56 55 50 45 40 32 25 21 20 18 18 17 14 10 8 9 11 11 11 10 10 10 10 9 8 8
0 0 0 0 0 0 0 1 2 3 4 8 13 16 17 16 16 18 23 29 38 46 55 59 58 55 51 46 39 29 23 21 20 20 20 18 16 12 9 9 10 10 10 9 9 10 9 8 8
0 0 0 0 0 0 0 1 2 3 4 6 11 15 16 16 17 22 26 31 37 46 55 59 59 56 53 51 45 34 27 24 24 24 24 22 19 16 12 9 9 10 11 10 9 9 8 8 9
0 0 0 0 0 0 0 0 2 3 5 7 11 14 17 20 23 26 30 34 39 45 50 55 57 55 53 51 46 38 32 29 28 27 25 23 20 17 15 13 11 12 12 11 9 8 7 7 8
0 0 0 0 0 0 0 1 2 3 6 9 11 13 17 24 26 26 28 33 38 43 46 50 54 54 52 49 45 41 37 33 31 28 25 22 19 16 15 14 14 14 13 12 10 8 7 7 7

GEFSSGP_con_prob3kmehi_234.txt.gz
EHI
8 3 0 0 0 0 0 0 0 0 0 0 0 0 0 0 0 0 0 0 0 0 1 2 4 8 10 11 11 11 11 8 5 4 5 6 4 3 1 1 0 0 0 0 0 1 3 3 1
6 3 0 0 0 0 0 0 0 0 0 0 0 0 0 0 0 0 0 0 0 0 0 2 4 7 9 10 11 12 11 9 6 4 4 5 4 2 1 1 0 0 0 0 0 0 1 1 1
4 2 0 0 0 0 0 0 0 0 0 0 0 0 0 0 0 0 0 0 0 0 0 1 3 6 7 8 9 10 11 10 7 5 5 4 4 4 2 1 1 1 1 0 0 0 0 0 0
2 1 0 0 0 0 0 0 0 0 0 0 0 0 0 0 0 0 0 1 2 1 0 0 2 4 6 6 7 9 9 8 5 4 5 4 5 6 4 1 2 3 3 1 0 1 1 1 1
1 0 0 0 0 0 0 0 1 1 1 0 0 0 0 0 0 0 0 2 3 2 1 1 3 6 6 5 7 8 7 5 3 3 3 4 4 4 3 1 2 4 4 3 2 3 2 2 2
0 0 0 0 0 0 0 0 1 2 1 0 0 0 0 0 0 0 0 1 3 2 1 1 4 6 6 5 5 6 4 3 2 1 2 3 2 1 1 1 2 4 3 3 3 4 3 2 3
0 0 0 0 0 0 0 0 1 2 1 0 0 0 0 0 0 0 0 1 2 2 1 0 2 4 4 3 3 2 2 1 1 1 2 2 1 0 0 0 1 1 1 1 1 2 3 3 3
0 0 0 0 0 0 0 1 2 2 1 1 0 0 0 0 0 0 0 1 2 1 0 0 0 1 2 2 2 1 0 0 0 0 1 1 0 0 0 0 0 0 0 1 1 1 2 3 3
0 0 0 0 0 0 0 1 2 3 3 2 1 0 1 2 1 0 1 2 2 1 0 0 0 0 0 1 1 0 0 0 0 0 0 0 0 0 0 0 0 0 1 2 2 2 2 1 1
0 0 0 0 0 0 0 1 3 4 4 3 1 1 3 3 2 1 1 2 2 1 0 0 0 0 0 0 0 0 0 0 0 1 1 0 0 0 0 0 0 1 1 2 2 2 1 0 0
0 0 0 0 0 1 1 1 2 4 4 2 1 2 3 3 2 1 0 1 1 1 2 1 0 0 0 0 0 0 0 1 1 1 1 0 0 0 0 0 0 0 0 1 1 1 0 0 0
0 0 0 0 0 1 2 1 1 1 1 1 1 2 3 3 2 1 0 0 1 2 3 2 1 0 0 0 0 0 0 0 0 1 1 0 0 0 0 0 0 0 0 0 0 0 0 0 0
0 0 0 0 0 1 1 2 1 1 2 1 2 3 3 3 3 1 1 1 1 3 3 2 1 0 0 0 0 0 0 0 0 0 0 0 0 0 0 0 0 0 0 0 0 0 0 0 0
0 0 0 0 0 0 1 2 3 4 4 2 2 3 3 3 3 3 2 2 3 3 3 2 1 0 0 0 0 0 0 0 0 0 0 0 0 0 0 0 0 0 0 0 0 0 0 0 0
0 0 0 0 0 0 1 2 4 6 5 2 1 2 3 3 3 3 3 3 3 3 3 1 0 0 0 0 0 0 0 0 0 0 0 0 0 0 0 0 0 0 0 0 0 0 0 0 0
0 0 0 0 0 0 1 1 4 6 6 4 2 1 2 3 3 4 4 3 4 4 3 2 1 0 0 0 0 0 0 0 0 0 0 0 0 0 0 0 0 0 0 0 0 0 0 0 0
0 0 0 0 0 0 0 1 3 7 8 7 4 3 3 4 4 5 5 6 6 6 5 5 4 2 1 1 0 0 0 0 0 0 0 0 0 0 0 0 0 0 0 0 0 0 0 0 0
0 0 0 0 0 1 1 1 4 8 9 9 8 7 6 5 4 4 5 7 7 7 6 6 5 3 2 1 0 0 0 0 0 0 0 0 0 0 0 0 0 0 0 0 0 0 0 0 0
0 0 0 1 1 2 2 3 5 9 9 8 9 10 9 8 6 4 5 7 7 7 6 6 5 4 3 2 0 0 0 0 0 0 0 0 0 0 0 0 0 0 0 0 0 0 0 0 0
0 0 0 1 2 2 2 3 4 5 6 5 7 10 11 10 8 6 6 8 9 8 7 7 6 5 3 2 1 0 0 0 0 0 0 0 0 0 0 0 0 0 0 0 0 0 0 0 0
0 0 0 1 1 1 1 1 1 2 2 3 5 7 9 10 9 8 8 10 10 9 7 6 6 5 4 3 2 1 2 1 1 0 0 0 0 0 1 0 0 0 0 0 0 0 0 0 0
0 0 0 0 0 0 0 0 0 1 2 3 4 5 7 8 8 9 9 10 11 10 8 6 5 5 6 6 6 6 5 3 2 0 0 0 0 0 1 0 0 0 0 0 0 0 0 1 1
0 0 0 0 0 0 0 0 1 2 3 3 3 5 6 7 9 9 10 11 11 11 10 8 8 9 10 11 12 11 8 4 1 0 0 0 0 0 1 0 0 0 0 0 1 1 1 2 2
0 0 0 0 0 0 0 0 1 2 3 2 2 4 6 8 9 9 10 11 12 12 14 15 15 14 13 15 15 13 9 5 3 2 1 1 1 0 1 1 0 0 1 2 3 3 3 3 4
0 0 0 0 0 0 0 0 0 1 2 2 1 2 4 8 9 7 7 10 12 13 16 19 19 16 14 14 14 12 9 7 5 4 4 4 3 1 1 1 1 1 3 4 6 6 5 4 5
0 0 0 0 0 0 0 0 0 0 1 1 1 2 4 6 8 7 7 9 11 13 16 19 19 15 13 13 13 11 10 9 7 5 4 5 6 4 2 2 2 3 4 5 6 5 4 4 5
0 0 0 0 0 0 0 0 0 0 0 1 2 3 3 5 6 7 7 9 11 12 16 19 19 16 13 11 12 12 11 10 8 6 5 5 7 6 5 4 4 4 4 4 4 4 3 3 3
0 0 0 0 0 0 0 0 0 0 0 1 2 2 2 4 5 6 8 10 12 13 16 20 21 18 13 11 11 12 12 12 10 9 8 8 8 8 8 7 6 4 3 3 3 3 2 1 1
0 0 0 0 0 0 0 0 0 0 0 1 1 2 4 5 5 6 9 11 13 16 18 20 21 17 13 12 12 13 15 15 14 13 13 11 11 11 10 9 7 5 4 3 4 4 2 1 2
0 0 0 0 0 0 0 1 1 1 0 0 1 4 6 6 5 7 10 11 14 17 18 19 19 17 15 14 15 16 19 19 18 17 15 13 12 12 12 11 8 5 4 3 4 4 3 3 4

GEFSSGP_con_prob3kmehi_240.txt.gz
EHI
11 8 10 15 13 4 0 0 0 0 0 0 0 0 0 0 0 0 0 0 0 0 1 2 3 5 6 7 8 7 5 2 1 1 0 0 0 1 3 1 0 0 0 1 2 2 2 1 2
9 8 11 14 9 2 0 0 0 0 0 0 0 0 0 0 0 0 0 0 0 0 0 1 2 3 5 8 9 8 5 1 1 1 1 0 0 1 2 1 0 0 0 0 1 1 1 1 2
8 10 13 10 4 0 0 0 0 0 0 0 0 0 0 0 0 0 0 0 0 0 0 1 1 2 3 7 9 8 4 1 2 2 2 1 2 1 1 0 0 0 0 0 0 0 1 2 3
10 12 11 6 1 0 0 0 0 0 0 0 0 0 0 0 0 0 0 0 0 0 0 1 1 1 3 5 7 6 4 2 2 3 3 3 4 3 1 0 0 1 1 1 1 1 2 3 3
12 11 7 2 0 0 0 0 0 0 0 0 0 0 0 0 0 0 0 0 0 0 0 1 1 1 2 4 5 4 2 2 3 4 4 4 4 3 1 0 0 1 2 2 1 2 3 3 3
9 6 2 0 0 0 0 0 0 0 0 0 0 0 0 1 1 0 0 0 0 0 1 1 1 0 1 3 3 2 1 2 3 4 4 4 4 2 1 0 0 1 1 1 1 2 3 3 3
3 2 1 0 0 0 0 0 0 0 0 0 0 0 1 2 2 1 0 0 0 0 1 1 1 0 0 1 1 1 1 1 3 4 3 3 3 1 0 0 0 0 0 0 1 2 3 3 3
0 0 0 0 0 0 0 0 0 0 0 0 0 0 1 2 3 1 1 1 0 0 0 0 0 0 0 0 1 1 0 1 1 2 2 2 1 0 0 0 0 0 0 0 1 2 3 2 1
0 0 0 0 0 0 0 0 0 0 0 0 0 0 1 2 3 3 2 2 1 0 0 0 0 0 0 0 0 0 0 0 0 1 1 1 0 0 0 0 0 0 0 0 1 2 1 1 0
0 0 0 0 0 0 0 0 0 0 0 0 0 0 1 3 3 3 3 3 2 1 0 0 0 0 0 0 1 1 1 1 0 0 0 1 1 1 0 0 0 0 0 0 1 1 0 0 0
0 0 0 0 0 0 0 0 0 0 1 0 0 1 2 3 3 3 3 3 3 2 1 0 0 0 0 1 2 3 3 3 1 1 2 3 3 2 1 0 0 0 0 0 0 0 0 0 0
0 0 0 0 0 0 0 0 0 0 0 1 1 1 2 3 3 3 3 3 2 2 1 1 0 1 1 2 3 2 2 2 1 2 3 4 4 3 2 1 1 0 0 0 0 0 0 0 0
0 0 0 0 0 0 0 0 0 0 0 1 3 2 1 1 2 3 3 3 2 2 2 2 2 2 3 4 4 2 2 1 1 2 4 4 3 2 1 2 1 0 0 0 0 0 0 0 0
0 0 0 0 0 0 1 0 1 1 2 2 3 3 1 0 1 3 3 3 2 2 3 3 4 3 3 3 4 3 3 2 1 2 3 3 3 1 0 1 1 0 0 0 0 0 0 0 0
0 0 0 0 0 0 0 1 2 3 3 3 3 3 2 1 1 2 2 2 2 2 3 4 4 4 3 2 2 3 4 4 4 4 3 2 2 2 1 1 0 0 1 1 0 0 0 0 0
0 0 0 0 0 0 0 1 3 3 3 3 3 3 3 1 0 1 1 2 3 4 6 6 6 5 5 3 3 5 7 8 7 6 4 1 1 1 2 2 1 1 2 1 0 0 0 0 0
0 0 0 0 0 0 0 1 3 3 3 3 3 3 3 2 2 2 2 3 5 7 11 12 11 9 8 6 4 4 7 8 7 6 3 1 0 0 1 2 3 2 2 1 0 0 0 0 0
0 0 0 0 0 0 0 1 2 3 3 3 3 4 5 5 5 5 6 6 6 9 15 19 18 15 13 8 4 3 4 4 5 4 3 1 0 0 1 2 3 2 1 0 0 0 0 1 1
0 0 0 0 0 0 0 1 3 4 3 3 4 6 8 8 8 9 9 9 8 10 15 21 23 21 18 13 7 4 2 3 3 3 2 0 0 0 0 2 2 1 0 0 0 0 0 0 0
0 0 0 0 0 0 0 1 3 4 3 3 5 7 9 9 11 13 13 12 11 11 14 18 22 23 21 17 12 7 3 2 2 2 2 1 1 0 0 1 2 1 0 0 0 0 0 0 0
0 0 0 0 0 0 0 1 3 4 4 4 6 8 9 11 14 17 18 16 14 12 11 14 18 21 21 19 14 9 6 4 3 3 3 3 2 1 0 1 1 0 0 0 0 0 0 0 0
0 0 0 0 0 0 0 1 2 3 4 5 8 10 11 14 17 20 21 19 15 12 11 13 16 18 18 17 15 12 9 7 5 4 4 4 3 3 2 1 2 1 1 0 0 1 2 2 2
0 0 0 0 0 0 0 0 1 2 3 5 8 9 11 15 17 19 19 18 15 12 13 15 17 17 17 17 17 16 13 9 7 6 5 4 4 4 4 4 5 5 3 1 1 2 4 4 4
0 0 0 0 0 0 0 0 1 2 2 4 5 5 7 11 14 16 16 15 14 14 16 18 21 21 20 19 19 19 16 11 9 8 6 4 4 5 6 6 8 8 6 4 3 3 4 4 5
0 0 0 0 0 0 0 0 1 2 3 4 5 4 5 8 12 15 16 15 15 17 21 24 26 26 24 22 21 21 18 13 11 10 8 6 5 5 7 8 10 12 11 8 6 6 6 6 7
0 0 0 0 0 0 0 0 1 2 3 4 5 5 6 7 10 14 16 16 16 19 25 29 31 32 31 28 26 23 17 11 9 10 9 7 5 5 7 10 12 15 14 12 11 11 11 12 12
0 0 0 0 0 0 0 0 1 2 3 3 4 5 7 7 9 13 16 16 16 17 21 28 33 37 38 35 29 23 17 12 9 10 11 9 7 6 8 11 14 17 18 17 17 16 16 16 16
0 0 0 0 0 0 0 0 2 4 4 4 5 8 10 10 11 14 16 17 15 14 16 22 29 35 36 33 26 21 19 16 13 13 15 14 11 11 13 15 18 21 24 24 22 21 19 18 17
0 0 0 0 0 0 0 1 3 5 6 7 9 13 13 12 13 15 17 18 17 16 16 21 27 30 28 25 22 21 20 19 18 17 18 18 17 18 19 21 23 24 26 26 25 22 19 17 16
0 0 0 0 0 0 0 1 3 4 5 7 12 17 16 13 13 16 17 18 19 19 20 25 28 27 24 20 20 22 22 21 20 19 19 20 21 21 23 24 26 26 26 26 25 22 17 15 14